ECMWFFLT1_850_thetae_000.txt.gz
Theta_e
311 308 308 308 307 307 306 306 307 308 311 313 314 316 319 320 319 319 319 319 320 321 321 320 319 319 321 322 323 323 322 321 321 322 322 321 322 323 323 323 323 321 320 320 320 320 320 320 320 320 321 321 321 321 320 320 320 321 321 322 322 320 319
309 308 309 308 307 307 306 306 306 307 309 311 313 315 317 318 317 317 316 317 318 319 320 320 320 320 322 323 323 323 322 321 320 320 320 320 322 323 323 321 321 319 318 319 320 320 321 321 321 321 320 319 320 321 321 321 321 319 319 321 322 320 320
310 309 309 309 308 307 306 306 306 306 306 307 311 314 316 316 316 315 315 316 317 317 318 319 320 321 322 322 322 322 321 321 321 321 321 321 321 322 321 319 319 318 319 319 320 320 320 319 318 317 314 311 311 313 314 316 316 316 317 318 319 320 320
311 311 311 310 308 307 306 306 305 305 305 305 307 310 313 314 314 314 314 313 312 312 312 312 314 316 318 318 319 321 321 320 319 319 320 321 320 320 318 317 316 316 317 319 320 320 317 314 313 311 309 307 308 309 311 313 314 315 317 317 317 318 320
314 312 310 309 309 307 306 305 305 305 305 305 305 306 308 309 309 309 309 307 307 307 307 306 306 308 308 308 309 313 316 317 317 317 318 319 317 314 311 312 313 314 315 317 317 315 311 308 307 306 306 307 308 309 313 316 316 317 318 317 318 319 320
316 314 311 309 309 307 306 306 305 305 305 305 306 306 306 306 306 306 306 306 306 306 306 306 305 305 305 305 305 305 307 309 310 311 312 311 309 306 305 306 308 309 311 311 310 308 306 305 305 305 305 306 306 307 313 317 316 317 317 317 319 320 321
317 315 310 309 310 309 306 306 306 305 306 305 305 306 306 306 306 306 306 306 306 306 306 306 306 306 306 306 306 306 305 306 306 306 306 305 305 304 304 304 304 305 305 306 305 304 304 304 304 304 304 304 304 305 310 316 316 315 316 317 318 320 320
317 314 310 309 311 310 307 306 307 307 307 307 306 306 306 306 306 306 306 306 306 306 306 306 306 306 306 306 306 306 305 305 305 305 305 305 304 304 304 304 304 304 304 303 303 303 303 303 303 303 302 303 303 302 307 314 316 315 315 315 317 318 320
317 313 311 311 311 311 308 307 308 309 308 308 307 307 307 306 307 306 306 307 307 306 306 306 306 306 306 306 306 305 305 305 305 305 305 304 304 304 304 304 303 303 303 303 303 303 302 302 302 301 301 302 302 301 303 309 313 313 313 314 315 317 318
318 314 312 311 311 311 310 309 310 309 309 309 309 309 308 307 307 307 307 307 307 307 306 306 306 307 306 306 306 305 305 305 305 305 305 304 304 304 304 304 304 304 304 303 303 303 302 302 301 301 302 302 302 302 301 303 305 306 307 308 311 314 316
318 314 313 312 311 312 312 312 312 311 311 311 311 310 310 309 308 308 307 308 307 307 307 307 306 306 306 306 306 306 306 306 305 305 305 305 305 305 305 305 305 305 305 305 304 304 303 302 303 303 304 304 304 304 304 303 303 303 303 304 305 308 310
317 315 314 313 313 313 313 313 314 313 312 312 312 312 312 312 311 310 309 309 308 308 307 308 307 307 307 307 306 307 307 306 306 306 307 306 307 307 306 307 307 307 307 306 306 306 305 304 305 306 305 306 306 305 305 306 305 305 305 305 304 305 305
318 316 315 314 314 314 314 315 315 314 314 314 313 314 314 315 314 314 312 311 311 311 310 309 309 308 308 307 307 307 307 307 307 307 307 307 307 308 307 307 307 308 308 308 308 308 308 307 308 308 308 307 306 306 306 306 306 307 307 306 306 305 305
318 317 316 315 314 314 315 315 315 315 315 314 315 315 315 316 316 316 316 315 315 315 314 314 313 312 311 310 309 308 308 308 307 307 307 307 307 307 308 307 307 308 308 308 309 309 310 309 309 309 308 308 307 306 306 306 306 307 308 307 306 306 305
318 318 317 316 315 315 316 316 315 315 315 315 316 316 316 316 317 317 316 316 316 316 316 317 317 316 316 315 314 313 311 310 309 308 308 308 308 307 307 307 307 307 307 308 308 309 309 309 309 309 308 307 307 306 305 305 305 305 307 307 307 306 305
319 317 317 317 317 316 316 317 316 316 316 316 316 316 316 316 317 317 316 316 316 316 316 317 317 317 317 317 317 317 316 315 313 312 310 309 308 308 307 308 307 307 307 307 307 308 308 308 308 308 308 307 306 305 304 304 304 304 305 306 306 306 305
318 318 317 317 317 317 317 317 317 317 317 317 317 316 317 317 317 317 317 317 317 316 316 316 316 317 317 316 317 317 317 317 317 316 314 313 311 310 309 308 307 308 308 308 307 307 308 308 307 307 307 307 306 305 304 303 303 303 303 304 305 305 304
318 319 318 317 318 318 317 317 318 318 318 318 317 317 318 318 318 318 317 316 316 316 317 316 316 316 315 316 316 316 317 317 317 317 316 315 314 313 312 310 308 308 308 308 308 308 308 308 308 307 307 306 305 305 304 304 304 304 303 302 303 304 303
319 319 318 318 318 318 318 317 317 318 319 319 318 317 318 318 317 317 317 316 316 316 317 316 316 315 315 314 315 316 317 317 317 317 317 316 315 315 314 313 310 309 309 308 308 308 308 308 308 307 306 306 305 305 306 306 306 305 304 302 302 302 302
319 319 319 319 317 317 318 317 318 318 317 318 319 319 319 318 317 317 316 316 316 316 316 317 316 315 314 314 314 315 317 317 318 317 317 317 316 315 315 313 311 310 310 310 309 308 308 308 308 307 306 306 306 307 307 306 306 305 303 302 301 301 300
319 319 320 319 318 318 317 317 318 318 317 318 318 319 318 318 318 317 316 315 316 316 317 317 316 314 314 314 314 314 314 315 317 317 317 317 317 315 314 314 313 311 311 310 310 309 308 308 308 307 307 307 307 307 306 305 304 303 302 301 300 299 299
319 319 320 319 317 318 318 317 318 318 318 318 317 316 316 316 317 317 317 316 317 317 317 316 315 313 313 314 314 313 313 314 317 318 317 317 317 316 315 314 313 312 312 312 311 309 309 308 308 308 308 308 308 307 305 304 302 301 300 299 298 298 298
320 319 319 317 316 316 317 316 317 318 319 318 316 316 317 316 317 317 316 316 316 316 316 315 314 313 314 315 315 315 315 315 317 318 317 317 316 316 315 314 313 313 312 312 311 311 310 309 308 308 308 308 308 307 305 303 301 300 299 298 298 297 297
320 319 318 318 317 317 318 318 317 317 317 316 316 317 317 316 315 313 313 314 314 314 314 315 314 314 315 316 316 317 317 316 317 317 317 317 317 316 315 314 314 313 313 312 312 311 311 309 309 309 309 309 308 308 305 302 301 299 299 298 297 297 296
318 318 318 318 317 316 317 317 316 316 316 316 315 315 313 310 309 309 311 314 315 315 314 315 314 314 314 315 316 317 317 317 317 317 318 318 317 315 315 315 314 313 312 312 312 311 310 309 309 310 310 309 309 308 306 303 301 300 299 298 298 297 296
316 317 318 317 314 313 313 313 313 313 314 312 310 309 309 310 311 312 313 315 315 315 315 315 315 315 315 316 317 318 319 318 318 318 318 319 317 315 314 314 313 313 312 311 312 311 310 309 310 311 310 309 308 307 305 303 301 300 300 299 298 298 297
314 315 316 314 312 311 311 311 312 312 312 310 309 310 312 313 313 314 314 313 313 313 314 314 314 314 314 314 315 316 317 318 319 319 318 318 317 316 315 314 313 313 312 311 310 310 309 309 309 309 309 308 307 305 304 302 301 300 300 299 299 298 297
311 311 311 311 311 311 311 311 312 312 312 313 313 313 314 314 313 313 312 311 310 310 310 310 309 308 307 307 307 309 313 316 318 319 318 317 316 315 314 313 312 311 311 311 310 309 308 307 307 307 307 306 305 303 302 301 301 300 300 299 299 298 297
309 309 310 310 310 309 308 308 309 309 309 311 312 312 311 310 309 308 308 308 307 307 307 306 305 304 304 303 303 306 310 315 317 318 317 316 315 314 312 312 311 310 309 309 308 307 306 306 306 305 305 304 303 302 302 301 301 300 300 299 298 298 297
309 309 309 309 308 305 304 304 304 304 305 305 305 305 305 305 305 304 304 304 305 307 307 306 305 304 303 302 302 304 307 311 314 316 315 315 314 313 311 311 311 310 308 307 306 305 305 305 305 304 303 302 302 302 301 301 300 300 300 299 299 298 297
307 308 308 308 306 304 303 303 303 303 303 303 304 304 305 307 306 305 305 305 306 307 308 307 307 306 305 304 304 305 308 311 312 313 314 313 312 311 310 309 309 309 307 306 305 305 305 305 305 303 302 302 302 301 301 301 300 300 300 299 298 298 297
307 307 307 307 307 306 305 304 304 303 302 302 303 305 306 307 308 308 308 308 308 308 309 308 308 308 308 307 306 306 309 312 312 312 311 311 310 309 309 308 308 307 306 306 306 306 305 305 304 303 302 302 301 301 301 301 300 300 299 298 298 297 296
308 308 308 308 308 307 306 305 304 304 303 303 302 302 303 306 308 309 309 309 309 309 309 309 309 309 309 309 308 306 307 309 311 311 311 310 309 308 308 308 308 307 306 306 305 304 304 303 303 302 302 302 301 301 301 300 299 299 298 297 296 295 294
307 307 307 307 307 307 306 306 306 305 305 304 303 302 302 303 305 307 308 309 309 309 310 310 310 310 310 310 309 308 306 306 308 309 310 310 309 308 307 306 306 305 305 304 304 303 302 302 301 301 301 301 300 300 299 298 298 297 296 295 294 294 294
305 305 305 305 306 307 307 307 308 307 307 306 305 305 304 302 302 303 305 307 308 309 310 310 310 310 310 310 309 309 307 305 305 307 308 308 308 307 306 305 304 303 303 302 302 301 301 300 300 300 300 299 298 297 297 296 295 295 294 294 294 294 293
305 305 305 304 304 306 307 307 308 308 307 306 306 305 304 303 302 302 303 306 308 309 309 310 310 310 310 309 309 308 306 305 304 304 305 306 306 306 305 304 304 302 301 301 300 300 300 300 300 299 297 296 295 295 294 294 294 294 294 294 294 293 293
305 305 304 304 304 304 305 305 305 304 304 304 304 304 303 303 303 303 305 307 308 308 308 309 309 309 309 309 308 307 306 305 304 304 305 305 306 305 303 303 302 302 301 300 300 299 299 298 297 295 295 295 294 294 294 294 294 294 293 293 293 292 292

ECMWFFLT1_850_thetae_003.txt.gz
Theta_e
319 314 307 307 307 307 308 310 313 315 316 316 317 319 319 319 319 319 317 317 319 321 320 319 319 319 321 322 322 322 322 322 322 322 322 323 323 323 323 323 322 322 321 319 319 318 319 319 320 319 318 318 318 318 319 320 320 320 320 319 320 321 322
318 311 307 308 307 306 306 307 311 313 314 315 316 317 318 319 318 317 317 317 319 320 319 319 318 317 320 322 322 321 321 320 320 320 320 321 322 323 323 323 321 320 319 318 318 319 320 318 315 312 309 309 311 312 313 315 317 318 318 317 318 319 320
315 308 307 308 307 307 306 306 308 311 312 313 314 316 317 317 317 315 315 315 317 318 317 318 317 316 318 320 321 320 320 320 319 319 321 321 321 321 321 320 319 318 317 318 319 320 319 314 309 306 305 306 309 313 314 313 314 315 315 316 317 318 318
312 308 308 308 307 307 306 305 306 307 309 311 313 315 315 315 314 313 313 313 314 315 314 315 316 317 318 318 319 319 319 319 317 318 320 320 319 319 318 317 315 313 312 314 316 318 314 309 306 305 305 306 307 313 317 316 316 317 317 317 318 318 319
310 308 309 308 308 307 305 305 305 305 306 307 310 312 312 311 310 309 309 308 308 308 308 308 309 311 312 313 315 317 317 315 315 317 318 318 317 315 312 309 308 307 307 308 310 310 308 305 305 305 305 305 305 313 317 317 317 317 317 318 319 319 319
311 309 308 308 308 307 305 305 304 305 305 305 307 308 308 308 306 306 306 306 306 305 305 305 305 305 306 306 308 309 310 309 310 311 311 310 309 307 305 304 304 305 305 305 305 305 304 304 304 303 303 303 304 310 316 316 316 316 316 317 318 318 318
313 312 310 308 308 307 305 305 304 305 305 305 306 306 306 306 305 306 306 306 306 306 305 306 305 305 305 305 305 305 305 306 306 306 305 305 305 305 305 305 305 304 304 304 304 303 303 302 303 302 302 302 302 306 313 316 315 315 315 315 315 315 315
314 316 314 310 309 307 305 305 305 305 305 305 305 306 306 306 306 306 306 306 306 306 306 306 306 306 306 306 305 305 305 305 305 305 305 305 305 305 305 304 304 304 303 303 303 303 303 302 303 302 302 302 301 303 308 312 313 313 311 310 311 312 312
313 316 317 312 308 307 305 306 306 305 306 306 306 306 306 306 306 306 306 306 306 306 306 306 306 306 306 305 305 305 305 304 305 305 304 304 304 304 304 303 303 303 303 304 304 304 304 303 304 303 303 304 303 303 304 306 307 307 307 306 306 307 307
313 314 318 315 309 307 306 306 306 306 306 306 307 307 307 307 307 307 306 306 306 306 306 306 306 306 305 305 305 305 305 305 305 305 304 304 304 304 304 304 304 304 305 305 305 305 305 305 306 306 306 307 307 306 306 306 305 305 305 305 305 305 305
315 313 315 316 311 307 307 307 307 307 307 307 307 308 308 309 309 308 308 308 307 307 307 307 306 306 306 306 306 306 306 306 306 306 306 305 305 305 306 306 306 306 307 308 308 307 306 307 308 308 308 308 308 308 307 307 307 306 306 306 305 305 305
316 315 315 317 314 309 308 308 307 308 308 307 307 308 309 309 310 310 310 310 310 309 309 309 308 308 307 307 307 307 307 308 307 308 307 307 307 307 307 307 307 307 308 309 309 309 308 308 308 309 309 309 308 308 307 307 307 307 306 306 306 305 305
317 316 316 317 316 311 309 309 309 309 310 309 308 308 309 309 309 309 310 310 310 310 310 309 309 309 308 308 308 308 308 308 308 308 308 308 308 307 307 308 307 307 308 308 309 309 310 310 310 310 309 309 309 308 307 307 308 307 307 306 306 305 305
316 318 318 317 317 314 310 311 313 313 313 313 312 311 311 311 310 310 311 311 312 311 312 311 311 310 310 309 309 309 309 309 308 308 308 308 308 308 308 308 308 307 307 308 308 309 310 311 311 310 310 310 309 308 308 307 308 309 308 307 306 306 305
316 317 318 318 317 316 313 312 314 315 315 315 315 314 314 314 314 314 314 315 315 315 315 315 314 313 313 313 313 313 313 313 312 311 310 309 308 308 308 307 308 307 307 307 308 308 309 310 311 310 310 310 309 309 308 308 308 309 310 309 307 306 306
316 318 319 318 317 317 314 313 313 315 316 316 316 316 316 316 316 316 316 316 316 316 316 316 315 315 315 315 315 316 316 316 316 315 314 313 312 311 310 310 309 308 307 307 307 308 308 308 310 310 310 309 309 309 309 310 309 309 309 309 308 306 306
316 317 320 319 318 317 316 314 314 315 316 316 316 316 316 316 316 317 316 316 316 316 316 316 316 316 316 316 316 316 317 317 317 317 317 316 316 315 315 314 313 312 309 308 307 308 308 308 309 309 309 309 309 310 310 311 311 309 309 309 307 306 305
316 317 319 319 318 317 316 315 315 316 316 317 316 316 316 316 316 316 317 317 317 316 316 316 316 316 316 316 316 316 316 316 317 317 317 317 317 317 317 317 316 315 314 311 309 308 309 308 308 309 309 310 310 311 311 311 311 310 309 308 307 305 304
317 318 319 318 317 317 317 316 315 316 316 317 317 316 316 316 316 316 316 317 317 316 316 316 316 316 316 316 316 316 316 316 317 317 317 317 317 317 317 317 317 316 316 314 311 310 310 310 309 309 309 310 310 311 311 311 311 310 309 308 306 304 303
320 320 320 319 318 317 318 317 316 316 317 318 317 316 316 316 316 315 316 317 317 317 316 316 316 316 317 317 316 315 315 315 316 317 317 317 317 317 317 317 317 316 316 316 314 313 312 311 310 309 309 309 310 310 310 310 310 310 309 307 305 302 301
320 320 319 318 318 318 318 317 317 318 318 317 317 316 316 316 316 315 315 316 316 317 316 316 317 317 317 317 315 314 313 314 316 316 316 316 316 317 317 317 317 317 316 316 315 314 313 313 312 310 309 309 309 309 310 310 310 309 308 306 304 302 301
320 319 318 319 318 318 318 317 317 317 316 315 315 314 314 315 316 315 315 315 316 316 316 317 317 317 317 317 315 313 312 313 314 315 315 315 315 316 317 317 317 316 316 316 315 314 313 313 312 311 310 310 309 309 310 310 309 308 306 305 303 302 301
320 319 318 318 318 318 318 317 316 316 315 315 314 314 314 315 315 314 315 316 316 317 317 317 318 317 317 316 315 314 314 314 315 316 316 316 316 316 317 317 317 317 316 315 314 314 313 312 311 310 310 310 310 310 310 310 309 308 306 304 303 302 302
319 319 318 317 317 318 318 317 315 314 315 316 315 315 316 315 315 315 315 316 317 317 317 318 317 317 316 316 315 315 315 315 315 316 316 316 316 316 317 317 317 317 316 315 314 313 312 311 310 310 309 309 309 310 310 309 307 306 306 305 304 303 302
317 317 318 318 318 317 317 317 316 315 316 317 315 315 316 316 316 316 316 316 316 316 316 316 315 315 314 315 315 315 315 315 315 316 316 317 317 317 317 317 318 317 316 315 313 312 310 310 309 309 309 309 308 309 309 308 307 305 305 305 304 303 302
318 318 319 319 319 318 317 317 316 316 316 316 315 315 315 315 315 315 316 316 315 315 315 315 315 315 315 315 315 315 315 315 315 316 316 317 318 318 318 318 318 317 315 314 313 311 310 309 309 310 309 308 308 308 308 307 306 305 305 305 304 303 302
317 318 318 318 318 318 317 317 317 316 315 314 314 314 314 315 315 315 316 315 314 314 314 313 313 313 313 312 312 311 310 309 309 309 309 311 314 316 318 318 318 317 315 312 311 311 310 309 309 310 308 307 307 307 307 307 306 305 305 304 304 302 301
316 316 317 317 317 317 316 316 316 315 314 314 314 314 315 315 315 315 315 314 313 311 309 307 306 306 306 306 305 305 304 303 302 303 304 307 310 313 316 317 317 316 314 312 311 310 309 308 309 309 307 306 306 305 306 305 305 305 305 304 303 302 301
315 315 315 315 315 315 314 314 313 314 314 314 314 314 314 314 314 313 312 310 307 304 303 302 303 303 303 304 303 303 303 302 302 302 303 305 308 311 314 316 315 314 313 312 311 309 307 308 309 308 306 305 305 305 305 305 305 305 304 303 302 301 300
313 312 312 311 312 312 312 312 312 312 312 313 313 313 313 313 312 310 307 304 303 302 303 303 303 303 304 304 304 304 304 304 304 303 303 303 305 308 312 314 314 313 313 312 310 308 307 309 309 307 305 304 304 305 305 305 304 303 302 302 301 301 300
311 311 310 310 310 310 310 310 309 309 310 310 310 310 309 309 307 305 303 303 303 303 303 304 304 305 305 305 306 306 306 306 306 305 304 305 306 308 310 312 312 312 311 310 308 307 308 308 307 305 304 304 305 305 304 303 303 302 301 301 301 300 300
308 309 309 309 309 308 307 305 305 305 305 305 305 305 305 304 304 304 304 304 304 304 305 306 307 307 307 308 308 308 308 308 308 307 305 306 308 309 309 310 310 310 309 308 307 307 307 307 305 305 304 305 305 305 303 302 302 301 301 301 300 300 299
307 308 308 307 307 307 305 304 303 303 303 302 302 303 303 303 303 303 304 304 305 307 308 308 308 308 309 309 309 310 309 309 309 308 306 306 308 309 308 308 308 307 307 307 307 306 306 305 305 304 304 305 304 303 302 302 301 301 300 300 299 298 297
308 308 307 307 307 307 306 305 305 304 303 303 303 303 303 302 302 303 303 303 305 306 307 308 309 309 309 310 309 310 309 309 309 308 306 305 306 307 308 307 307 307 306 306 306 306 305 305 304 304 303 303 302 301 300 300 300 299 298 297 296 295 295
306 307 307 308 308 308 307 306 306 305 305 305 305 305 305 305 304 304 303 303 303 303 303 305 307 308 309 309 309 309 309 309 308 308 306 305 304 305 306 306 306 306 306 305 305 305 304 303 303 302 302 301 300 299 299 298 297 296 296 295 295 294 294
305 305 305 306 306 307 307 307 307 307 307 307 307 307 307 306 305 304 304 303 303 302 302 304 307 308 309 308 308 307 307 307 307 307 306 305 304 304 304 304 304 304 304 304 304 304 303 303 302 301 300 299 298 297 296 296 295 295 295 295 294 294 294
305 304 304 304 304 305 305 306 307 307 308 308 308 307 306 305 304 303 303 303 302 302 303 305 307 308 307 305 304 304 304 306 307 307 306 305 304 304 303 303 303 302 302 302 303 302 301 300 299 298 297 296 295 295 295 295 295 294 294 294 294 294 293

ECMWFFLT1_850_thetae_006.txt.gz
Theta_e
319 317 310 306 307 307 307 306 306 306 307 309 312 315 317 319 318 317 316 316 319 319 319 319 319 319 320 321 321 322 321 322 322 322 323 323 323 323 322 322 323 322 319 318 318 318 319 318 314 311 310 311 313 315 316 317 317 318 319 318 318 318 319
321 318 310 306 307 307 306 306 306 306 307 309 312 315 317 318 317 316 315 317 320 320 319 319 317 318 321 321 321 320 320 320 320 320 321 321 321 322 322 322 321 319 317 317 319 320 318 313 307 306 310 313 313 314 314 315 315 316 317 317 317 317 318
321 316 309 307 307 306 306 306 305 306 306 307 311 314 315 315 315 314 313 316 319 318 317 316 315 317 321 320 319 319 319 319 320 320 320 320 320 321 320 319 317 315 314 315 317 319 315 308 305 305 308 313 315 315 316 316 316 316 316 317 318 318 319
320 315 308 307 307 307 306 306 305 305 305 306 309 312 314 313 311 310 311 312 314 313 313 312 313 316 319 319 318 318 318 317 319 319 319 319 318 317 316 314 312 309 308 308 309 310 308 305 305 304 306 312 315 315 315 316 316 316 316 317 317 317 318
318 313 308 308 308 307 306 306 305 305 305 306 309 312 312 310 308 307 308 308 308 307 307 309 311 313 315 316 315 315 315 315 316 318 317 316 313 310 308 307 306 305 305 305 305 305 304 303 304 303 304 310 315 315 315 315 314 314 315 315 314 314 314
315 311 308 308 308 308 306 305 304 304 305 306 309 310 308 307 306 306 306 305 305 305 305 306 307 308 308 309 309 308 308 309 309 310 310 308 307 305 305 305 305 305 304 304 303 303 303 302 302 303 302 307 313 315 315 314 312 311 311 311 311 310 310
314 312 310 308 308 308 306 305 304 304 305 306 308 308 306 306 306 305 305 305 305 305 305 305 305 305 305 305 305 305 305 305 305 305 305 305 305 305 305 304 304 304 303 303 303 303 303 303 302 302 302 303 309 314 315 313 310 309 308 307 307 307 307
314 314 314 312 310 308 305 304 304 305 305 306 307 306 305 305 306 306 306 306 306 305 306 306 305 305 305 305 305 305 305 305 305 305 305 305 304 304 304 304 304 304 305 305 305 305 305 305 304 304 302 302 305 309 310 309 309 308 306 304 305 305 306
312 313 315 314 311 309 306 304 304 305 305 305 306 306 305 306 305 306 306 306 306 306 305 306 305 305 305 304 304 304 304 304 304 304 304 304 304 304 305 305 306 307 308 309 308 309 309 308 308 308 306 305 304 305 306 306 306 306 305 305 305 305 305
314 313 313 310 310 309 306 305 305 305 305 305 305 305 305 305 306 305 306 306 306 306 306 305 305 305 305 305 305 305 305 305 305 305 305 305 306 306 307 308 309 310 311 311 311 311 311 310 310 310 309 308 308 307 306 306 306 305 305 305 305 305 305
315 314 310 309 312 312 307 305 306 305 305 306 305 306 305 306 306 306 306 306 306 306 305 305 305 306 306 306 306 307 307 308 307 307 307 308 308 308 309 310 310 311 311 311 312 312 312 312 311 311 310 310 310 309 308 307 306 306 305 305 305 305 305
315 313 310 310 314 314 309 306 306 305 306 306 306 306 306 306 306 306 306 306 306 306 306 306 306 306 306 307 307 308 309 309 309 310 309 309 309 309 309 310 310 310 310 310 311 311 312 312 312 312 312 312 311 311 310 309 308 307 306 306 305 305 305
315 314 313 311 313 315 312 308 306 306 306 306 306 306 306 306 306 306 306 306 306 306 306 306 306 307 307 307 307 308 308 309 308 309 309 310 309 309 309 309 309 309 309 310 310 310 311 312 312 312 312 312 312 312 312 312 310 309 308 307 306 306 306
315 315 315 312 313 315 314 311 307 306 307 306 306 307 307 307 307 307 307 307 307 307 307 307 307 307 307 307 307 307 307 307 307 307 308 308 308 308 308 308 308 308 308 308 309 309 310 311 311 312 312 312 312 312 312 312 312 311 310 309 309 308 306
315 315 316 314 314 315 316 314 309 307 308 308 308 307 307 308 307 308 308 308 308 308 308 308 308 308 308 308 309 309 308 308 308 307 307 307 307 307 307 307 308 307 307 307 307 308 308 309 310 311 311 312 312 312 312 312 312 311 311 311 311 309 308
315 314 316 316 315 315 317 317 313 310 309 310 310 309 308 309 309 310 311 311 311 310 310 310 310 311 312 313 313 313 313 313 312 312 311 310 309 308 308 308 309 309 308 307 307 307 308 308 309 309 310 311 311 311 311 311 311 311 311 311 310 310 309
315 314 315 317 316 316 316 317 317 314 312 312 314 313 312 311 311 312 313 314 313 313 313 312 312 313 315 315 316 316 316 316 316 316 315 314 314 313 312 312 312 312 311 310 309 308 308 308 309 309 309 309 310 310 311 311 311 311 311 311 310 310 309
316 315 316 317 317 316 316 317 318 317 315 314 315 315 315 314 313 313 314 315 315 315 315 315 314 315 316 316 316 316 316 316 316 316 317 317 316 316 316 316 315 315 315 315 313 311 310 310 310 309 308 309 309 310 310 310 311 311 311 311 310 309 308
316 315 316 316 317 316 317 317 317 318 317 315 315 315 316 315 314 314 314 314 315 316 316 316 315 316 316 316 316 316 316 316 315 316 316 317 317 317 317 317 316 316 316 317 316 315 314 313 311 311 310 310 309 309 310 310 311 310 311 310 310 309 309
316 315 315 316 317 316 316 317 317 318 318 317 316 315 315 316 315 315 315 314 314 316 316 316 316 316 316 316 316 316 317 316 316 315 316 316 317 316 316 316 316 316 316 316 316 316 316 314 313 313 312 312 311 310 310 310 311 310 310 310 310 310 309
317 316 316 317 317 316 316 317 318 318 318 317 316 316 316 316 316 315 315 315 314 315 315 316 316 316 316 316 316 317 317 317 316 314 314 315 315 315 315 315 316 316 316 316 316 316 315 315 314 313 313 313 312 311 311 311 311 310 310 310 310 309 309
319 317 317 318 318 317 316 317 317 317 317 317 317 317 316 317 316 315 314 314 314 313 314 315 316 316 317 317 317 317 317 317 316 314 313 314 315 315 316 316 316 316 316 316 315 315 315 314 313 313 313 313 312 311 311 311 311 311 310 310 310 309 309
320 319 319 318 318 318 318 317 317 316 316 317 317 317 316 315 315 315 315 313 313 313 314 315 316 317 317 317 317 317 317 317 316 315 314 315 315 315 316 316 316 316 316 316 315 314 313 313 312 312 311 311 311 311 311 310 310 310 310 310 309 309 309
319 319 319 318 318 319 317 317 317 316 316 316 317 317 316 315 314 314 314 312 312 314 315 315 316 317 318 318 317 316 316 315 315 315 315 315 315 315 316 317 317 317 317 317 316 315 313 312 311 310 310 309 309 309 310 309 309 309 309 309 309 308 308
319 319 319 319 318 318 317 317 317 317 316 317 317 317 316 315 314 313 313 313 314 315 314 315 316 317 317 316 315 315 314 314 314 313 312 312 312 312 312 314 316 317 318 317 317 317 314 311 310 309 308 308 308 309 309 309 309 309 308 308 308 308 307
318 319 319 318 317 317 317 317 317 317 317 317 317 316 315 315 315 314 314 315 315 314 315 315 316 317 316 315 314 314 313 311 309 307 306 305 305 306 307 308 310 314 317 318 318 317 315 311 309 309 308 308 308 309 309 308 308 307 307 307 307 307 306
318 318 319 318 316 316 317 318 317 317 317 317 316 315 315 315 315 315 315 315 315 315 315 316 316 315 314 312 310 309 307 305 303 302 302 302 303 304 306 308 310 313 315 317 317 316 314 311 309 308 307 308 308 308 307 307 307 306 305 306 307 306 305
318 318 318 317 316 317 317 318 317 317 317 316 316 315 315 315 315 315 316 316 316 316 315 315 314 311 309 307 306 305 304 303 303 302 303 302 303 303 304 306 309 312 314 315 315 314 312 309 308 307 307 307 308 308 307 307 306 305 305 305 306 305 305
317 317 317 316 316 317 318 317 317 317 316 315 315 315 315 315 315 315 315 315 315 315 314 312 309 307 305 305 304 304 303 303 303 303 302 302 302 302 302 303 305 309 312 314 313 311 308 307 307 307 307 307 308 308 307 306 304 304 304 304 304 304 304
315 316 315 315 316 317 317 317 317 316 316 315 314 314 313 314 314 315 314 314 313 312 310 307 306 306 306 306 305 304 304 303 303 303 303 302 302 302 302 302 303 306 310 312 312 309 308 307 307 306 307 307 307 307 305 304 303 303 304 304 304 304 303
312 313 314 315 316 317 316 316 315 315 315 314 313 313 313 314 314 314 313 311 309 307 306 306 307 308 308 307 306 305 305 305 305 304 304 304 303 302 302 302 303 305 308 310 310 309 308 307 307 306 307 306 306 304 303 303 303 303 303 303 303 302 301
309 309 310 310 312 313 312 312 313 313 313 313 313 313 313 313 312 311 309 307 306 307 308 308 309 309 308 307 307 307 307 307 307 307 306 305 305 304 303 304 304 306 307 308 308 308 308 307 306 306 305 305 303 303 303 303 303 302 302 302 301 301 300
308 307 307 308 308 308 308 309 310 309 310 310 311 311 311 310 310 309 307 306 307 307 307 307 307 307 307 307 307 307 308 308 308 307 306 305 305 305 304 305 305 306 306 306 307 306 306 305 305 305 304 303 303 303 302 302 301 301 301 300 300 299 298
307 307 307 307 307 307 306 306 306 306 306 306 307 308 308 307 307 306 305 304 304 304 304 303 303 303 303 303 304 306 307 307 306 305 304 304 305 305 305 305 305 306 306 305 305 305 305 305 305 304 303 303 302 302 301 302 302 301 300 299 298 297 297
306 306 307 307 307 307 306 305 305 304 304 304 305 305 305 304 304 303 303 303 302 302 302 302 302 302 302 302 304 306 306 305 303 302 302 304 305 305 305 304 304 304 305 305 305 304 304 304 303 303 303 302 302 302 301 301 301 299 298 297 297 296 296
305 305 306 307 307 307 307 307 306 306 305 305 305 304 303 303 303 303 303 303 303 303 303 302 302 302 302 303 305 305 304 303 302 301 302 304 305 305 305 304 304 304 304 304 304 303 303 303 303 302 302 302 301 300 299 298 298 297 296 296 295 295 294
305 304 305 305 306 307 307 307 307 307 306 306 306 306 305 305 304 304 304 304 304 303 303 302 302 302 302 304 305 305 303 303 303 302 302 303 305 305 304 304 303 303 303 303 302 302 302 302 301 301 300 299 298 297 296 296 296 295 295 294 294 294 294

ECMWFFLT1_850_thetae_009.txt.gz
Theta_e
316 313 308 307 307 307 307 307 306 306 307 308 310 312 314 315 315 315 314 314 315 316 317 319 319 319 320 320 321 321 322 323 323 323 324 324 324 324 324 323 322 321 320 319 320 322 321 317 313 312 312 311 312 314 315 316 317 317 318 318 318 318 318
318 315 309 306 307 307 307 307 306 306 307 308 311 315 318 317 316 315 315 316 317 318 318 318 318 319 319 319 320 320 320 321 321 321 322 323 322 323 323 322 320 318 318 317 318 318 315 313 313 313 313 313 313 314 314 315 316 317 317 318 318 318 319
319 316 310 307 307 307 307 306 306 305 305 307 310 315 317 317 315 315 317 319 319 318 317 317 319 320 320 320 319 319 320 320 320 321 321 321 321 322 322 321 318 317 318 319 319 315 309 308 312 314 315 314 313 313 314 314 314 315 316 317 318 318 319
318 314 309 307 308 307 306 306 305 305 305 305 308 312 314 314 312 313 317 319 318 317 316 317 320 320 319 319 318 319 320 320 320 320 320 321 321 321 319 317 315 313 313 314 316 311 306 306 310 314 315 314 313 312 312 313 313 312 313 314 314 314 315
317 311 308 308 308 307 306 305 305 304 305 307 309 311 311 310 309 310 313 315 314 313 313 317 319 319 318 318 317 318 319 320 319 320 319 318 317 315 314 311 308 307 306 306 307 305 304 305 308 313 314 313 312 310 309 310 310 310 311 311 311 310 310
316 310 308 308 308 307 305 304 304 304 305 308 309 310 309 307 307 307 308 308 308 309 311 314 316 317 316 315 315 316 318 318 318 316 313 310 308 307 307 306 304 304 303 303 303 303 303 303 305 310 313 314 312 309 308 308 307 307 308 308 308 308 308
315 311 309 309 308 307 305 304 305 304 306 307 308 308 306 306 306 305 305 305 305 306 307 308 309 309 309 308 309 310 311 311 311 308 306 305 305 304 304 304 304 304 304 304 304 303 302 302 303 307 312 314 312 309 308 308 308 308 307 305 306 306 306
315 312 310 309 308 307 305 304 305 305 306 307 307 306 306 305 305 305 305 305 305 305 305 305 305 305 305 305 305 305 305 306 305 305 304 305 304 304 304 305 306 307 307 307 306 305 304 303 302 303 309 313 311 309 308 308 308 308 306 305 304 305 305
315 314 313 310 309 308 306 305 305 305 306 306 306 306 305 305 305 305 305 305 305 305 305 305 305 305 305 305 304 305 304 304 304 304 304 304 305 306 307 308 309 310 309 308 308 309 308 307 304 302 305 309 310 309 309 308 307 306 305 304 304 305 305
314 314 312 309 308 308 307 305 304 305 305 305 305 305 305 305 305 305 305 305 306 305 305 305 305 305 304 304 304 304 304 304 304 304 304 305 308 310 310 311 311 311 311 310 310 310 309 308 307 305 305 307 308 309 309 308 307 306 305 305 305 305 305
314 313 311 309 308 307 306 306 305 305 305 305 305 305 305 305 305 306 305 306 306 305 305 305 305 304 304 304 304 304 304 304 304 305 305 307 309 310 311 311 311 311 311 312 312 311 311 310 310 309 308 308 308 309 309 309 307 306 306 306 306 306 305
316 313 311 312 312 309 307 306 305 305 305 305 305 305 305 306 305 306 306 306 306 305 305 305 305 305 305 304 304 304 305 305 305 306 307 307 308 309 310 310 310 310 311 311 312 312 312 312 312 312 311 311 311 311 311 310 308 307 308 307 307 307 305
317 315 312 313 314 311 310 309 306 306 306 305 306 306 306 306 306 306 306 306 306 305 305 305 305 305 305 305 305 305 306 306 306 306 307 307 307 307 308 309 309 310 310 310 310 311 312 312 312 312 312 312 312 312 312 312 310 309 309 309 308 307 306
318 316 313 313 314 311 312 313 309 307 306 306 306 306 306 306 306 306 306 306 306 306 306 306 306 306 306 306 306 306 306 306 306 306 306 306 307 307 307 307 307 308 308 309 309 309 310 310 311 311 312 312 312 312 311 312 312 311 310 310 309 307 306
318 316 314 314 313 310 312 316 313 309 306 306 307 307 307 307 307 306 307 306 306 306 306 306 306 306 307 307 308 308 308 308 307 307 307 306 306 307 307 307 307 307 307 307 307 308 308 309 309 310 310 311 311 312 311 311 311 311 311 311 310 309 307
318 316 315 315 313 310 312 316 315 312 308 307 307 307 307 307 307 307 307 307 307 307 307 307 308 308 308 309 310 311 312 312 312 311 310 309 309 308 308 309 310 310 309 308 308 307 308 308 309 309 309 309 310 311 311 311 311 311 312 311 311 310 309
318 317 316 315 313 312 313 315 316 316 312 308 307 308 308 307 308 308 308 309 309 308 308 308 309 310 310 311 312 313 313 314 315 315 314 314 313 313 312 312 312 313 313 312 311 309 308 308 309 310 310 309 310 310 310 311 311 311 310 311 311 310 310
319 318 317 316 314 314 315 315 316 317 316 312 309 309 310 309 309 309 310 310 310 309 309 310 312 313 314 314 314 314 314 314 314 315 316 316 316 316 315 315 315 315 315 315 314 312 311 310 310 311 312 312 311 310 310 311 311 310 309 309 309 310 310
321 320 317 316 315 315 315 316 316 317 318 316 313 312 312 312 311 311 311 311 311 311 311 312 314 315 316 316 315 315 315 315 315 315 316 316 316 316 316 316 316 316 316 316 315 315 314 313 311 311 313 313 312 312 311 311 311 310 309 309 310 310 310
322 321 319 316 315 315 315 316 316 316 317 317 317 315 315 314 314 313 312 312 312 312 313 314 315 315 316 316 316 315 316 316 316 316 316 315 315 316 317 316 316 316 316 316 316 315 315 314 313 312 312 312 312 312 312 312 311 311 311 311 311 310 310
322 322 320 319 317 316 315 316 316 316 316 318 318 317 316 316 316 315 314 313 313 313 314 315 315 316 316 316 316 316 316 316 316 317 316 315 315 315 315 315 315 315 315 316 316 316 315 314 313 313 313 312 311 311 312 312 311 311 311 311 311 310 310
322 321 321 320 318 317 316 316 316 316 316 317 317 318 317 317 317 316 314 314 314 314 315 315 315 315 316 316 316 317 317 317 317 317 317 317 316 315 315 315 315 315 316 316 316 316 316 315 313 312 312 312 312 311 311 311 311 311 311 311 310 310 309
322 322 321 320 319 317 316 316 316 316 317 317 317 318 318 317 317 316 315 314 315 314 314 314 313 313 314 316 316 317 317 317 317 317 316 316 315 315 315 315 315 316 316 316 316 316 316 315 314 313 311 311 311 311 309 309 309 310 310 309 309 309 308
321 321 321 320 319 318 317 316 315 315 317 317 317 317 316 315 316 316 315 315 315 314 314 314 312 312 313 315 316 317 317 316 316 315 315 315 315 314 315 315 315 315 316 316 316 316 316 316 315 314 312 309 309 309 308 307 308 309 309 309 309 309 308
320 320 320 319 319 319 318 317 316 316 316 316 316 315 314 314 315 316 317 316 314 314 314 313 312 312 314 315 316 316 315 315 314 313 313 312 311 310 309 310 311 312 314 316 317 317 317 317 316 315 313 309 308 308 307 307 307 308 309 309 308 308 307
319 319 319 319 319 319 319 318 318 317 316 315 315 315 315 315 316 317 316 314 313 314 314 313 312 314 315 315 316 316 314 312 310 308 306 305 304 303 303 303 304 305 307 310 313 316 318 318 317 316 313 308 307 307 307 306 307 308 308 308 307 306 306
318 318 318 319 319 319 319 318 318 316 315 315 316 316 316 317 317 317 315 313 313 314 314 312 313 315 316 315 314 312 310 307 305 303 303 302 302 302 302 302 303 304 305 307 310 314 317 317 317 315 312 308 307 307 306 306 307 307 307 307 306 305 304
316 317 317 318 319 319 318 318 317 316 316 316 317 317 317 317 316 315 314 313 313 313 313 314 315 315 315 313 310 307 306 305 304 303 303 303 303 302 302 302 303 304 306 308 310 313 316 316 316 314 311 308 307 306 306 306 306 307 307 306 305 304 303
315 315 316 318 318 319 318 317 316 317 317 317 317 317 317 316 316 315 315 314 314 314 315 315 316 315 313 310 307 306 305 304 304 303 303 303 303 302 302 302 302 303 304 306 309 311 313 313 313 311 309 307 306 306 305 306 306 307 307 305 304 303 303
314 315 315 316 318 318 318 317 317 317 317 317 317 317 316 316 316 316 316 315 315 315 315 315 315 314 310 307 306 306 305 304 304 304 303 303 303 302 302 302 301 302 302 304 306 308 310 310 309 307 306 305 305 305 306 306 306 306 305 303 303 303 302
312 313 314 315 316 316 316 316 316 317 316 315 315 315 316 316 316 316 316 316 315 315 315 315 313 310 308 306 306 306 307 306 305 305 304 303 303 302 302 302 301 301 302 302 304 307 308 308 306 305 305 305 305 306 306 305 304 303 303 302 302 302 302
309 310 311 313 314 315 315 315 316 316 316 315 314 314 315 315 315 315 314 314 315 314 313 311 308 307 307 308 307 307 307 306 305 305 304 303 303 302 302 301 301 302 302 303 304 306 308 307 307 306 306 305 305 305 304 303 303 302 302 302 301 301 301
308 308 308 309 312 314 315 315 316 316 316 315 314 314 314 314 314 314 313 313 312 311 309 308 308 309 308 308 306 306 306 305 305 304 303 303 302 302 302 302 302 302 303 304 305 305 306 306 306 305 305 304 304 304 303 303 302 302 301 300 300 300 300
307 307 307 307 308 309 311 312 313 314 314 315 314 314 314 314 314 314 313 311 309 308 307 308 308 307 305 304 303 303 304 304 304 303 303 302 302 302 302 303 303 304 304 304 305 305 305 305 305 305 304 304 304 303 303 303 302 302 301 301 300 300 299
305 306 306 307 307 307 307 308 309 310 312 313 313 313 312 313 313 313 311 309 307 306 306 305 304 303 302 302 302 303 304 304 303 303 303 302 302 302 302 303 304 304 304 304 304 304 304 303 304 303 303 303 303 303 303 303 302 302 301 300 298 297 296
304 305 305 305 307 307 307 307 306 307 308 309 309 309 309 309 310 310 309 307 305 303 303 302 302 302 302 302 302 303 303 303 303 303 303 303 303 303 303 303 304 304 304 304 304 303 303 303 303 303 302 302 302 301 301 300 299 298 297 296 296 295 295
304 304 304 304 305 307 307 307 307 306 305 305 305 306 307 308 308 307 306 304 303 302 303 303 303 302 302 302 302 303 303 303 303 303 303 303 303 303 303 303 303 303 303 303 303 303 303 302 302 301 300 299 298 298 297 297 296 296 295 295 295 294 295

ECMWFFLT1_850_thetae_012.txt.gz
Theta_e
317 309 308 310 311 310 308 310 313 312 314 316 315 316 317 317 317 318 317 317 319 319 319 319 318 317 319 322 323 325 327 326 327 328 327 325 327 327 325 324 323 323 325 325 324 324 323 319 317 316 315 313 314 316 317 317 317 318 318 318 317 318 319
314 307 307 307 307 308 307 309 316 316 313 314 316 316 317 318 317 317 319 319 318 320 321 321 319 318 319 319 320 323 325 326 327 328 327 327 328 327 324 324 324 324 325 325 325 324 322 319 317 316 315 314 314 315 315 316 316 317 317 317 317 317 318
314 308 308 307 307 310 309 309 315 319 316 316 316 316 317 317 316 317 319 319 317 318 320 320 317 316 317 317 319 323 326 327 327 327 327 328 328 326 326 325 325 325 324 323 324 322 319 318 318 316 316 316 315 315 314 314 314 314 315 316 316 316 317
314 308 307 307 309 313 314 313 315 318 319 319 318 316 315 314 314 316 318 316 316 316 317 317 317 317 319 318 319 322 325 326 326 325 325 326 328 326 326 325 323 322 321 321 320 319 317 317 317 317 316 315 315 315 314 313 312 312 312 313 313 313 313
313 308 308 308 310 312 312 312 314 317 319 319 319 317 312 312 314 315 316 316 316 315 316 316 317 318 320 320 320 320 322 322 322 322 323 325 326 325 323 322 320 319 318 318 317 316 315 316 317 317 315 314 314 314 313 312 312 311 311 310 311 311 311
313 310 310 308 310 312 310 312 316 318 319 320 319 316 311 311 315 316 316 317 316 314 315 316 316 318 319 319 319 319 320 321 322 322 322 322 322 320 318 316 315 314 313 312 313 314 314 315 316 316 314 314 314 313 313 312 311 310 309 308 309 310 310
312 309 310 308 309 312 312 314 317 319 320 319 317 312 308 308 310 310 310 312 313 314 315 315 316 318 319 319 319 319 320 320 318 317 316 314 312 311 310 310 309 308 307 307 309 310 311 313 315 315 315 315 313 313 312 312 311 310 308 306 306 307 308
312 309 309 306 305 308 309 312 317 319 319 316 311 306 305 306 305 305 305 306 308 310 312 313 314 314 315 317 317 317 316 313 309 308 307 306 305 304 305 306 306 305 305 306 308 310 311 312 314 314 315 314 313 312 312 312 311 310 307 306 305 305 305
314 311 310 306 305 305 305 307 312 316 313 309 307 305 305 305 305 305 305 305 305 306 307 307 309 308 308 311 310 309 309 306 304 305 304 304 304 304 305 306 306 306 306 308 309 309 310 312 313 314 315 314 313 313 312 311 310 309 307 306 305 305 304
315 313 311 306 305 305 304 304 307 309 307 305 306 306 306 306 306 305 305 305 305 305 305 305 305 306 305 306 305 305 305 305 304 304 304 304 305 306 307 308 309 309 309 309 309 307 308 310 312 314 314 314 313 314 313 313 312 309 307 306 306 305 304
316 314 309 306 305 305 305 305 305 305 305 305 306 306 306 306 306 305 306 306 305 305 305 304 304 305 304 304 304 304 304 304 304 304 305 307 308 308 310 310 311 311 310 310 310 309 308 309 311 312 313 313 314 314 313 313 313 311 308 307 306 305 304
317 314 310 308 308 306 306 306 305 305 305 305 306 305 306 306 305 306 306 305 305 305 304 305 305 304 304 304 304 304 304 304 304 305 307 309 310 310 311 311 311 312 311 311 311 311 311 311 312 312 313 314 314 314 314 314 313 312 309 308 307 306 305
319 316 314 312 310 309 311 308 305 305 305 305 306 306 306 306 306 306 306 306 306 305 304 305 305 304 304 304 305 305 305 305 306 306 308 309 309 310 310 311 311 311 312 312 312 312 312 312 313 313 313 313 313 314 315 314 313 311 310 310 308 306 306
320 319 317 315 312 312 314 309 305 305 306 305 306 306 306 307 307 308 308 308 307 306 305 305 305 306 306 305 305 306 306 307 307 307 307 308 308 309 309 309 310 310 311 311 311 312 312 312 312 313 313 313 313 313 314 314 313 311 312 312 308 307 309
321 320 318 315 313 314 314 310 306 306 306 306 306 306 306 306 307 308 310 311 310 308 307 306 306 309 309 307 306 306 307 309 309 307 306 307 307 308 308 308 308 308 308 308 309 311 311 311 312 313 313 313 312 312 313 313 313 312 311 312 310 308 310
321 320 319 315 313 313 314 312 309 307 306 307 306 306 307 306 306 307 308 310 310 308 308 307 307 309 310 311 311 310 310 311 311 310 309 309 309 308 308 309 309 309 308 307 308 310 310 311 311 311 311 311 311 311 311 312 313 312 311 310 309 307 309
320 319 318 316 313 313 313 313 313 309 306 307 307 307 307 307 307 307 306 307 307 307 308 307 307 308 310 312 313 313 313 313 313 314 314 313 312 311 311 312 312 312 312 310 310 310 309 310 311 311 311 311 310 310 311 312 313 312 310 310 308 306 308
319 317 318 317 315 314 312 311 314 313 310 308 308 308 308 307 307 307 307 307 307 307 308 308 309 310 311 311 312 313 314 314 315 315 315 315 314 314 314 314 314 314 315 314 313 312 311 311 311 312 312 311 311 311 311 312 312 312 311 310 309 308 308
320 318 318 317 316 315 312 310 312 315 315 312 310 309 309 309 308 308 308 308 309 309 309 310 312 313 314 314 314 314 314 315 315 315 316 316 316 315 315 315 315 315 316 316 315 314 314 313 312 311 312 311 311 311 312 312 313 312 312 311 310 310 310
322 321 319 318 318 317 315 313 312 314 315 316 315 313 312 312 311 310 309 310 311 311 311 312 313 314 315 317 317 316 316 316 316 316 316 316 316 316 316 316 316 316 316 316 315 315 315 315 314 312 312 311 310 311 312 312 312 313 313 312 312 311 311
323 322 320 319 319 318 317 316 314 314 315 315 317 317 316 315 315 314 312 311 312 312 312 313 314 314 315 316 317 316 316 317 317 317 317 317 316 316 315 315 315 315 315 315 315 315 315 315 315 314 313 312 311 310 311 311 312 313 313 313 313 312 312
322 322 321 319 320 320 319 317 316 315 315 315 316 317 317 318 318 317 315 314 313 312 312 313 315 315 316 316 317 316 316 317 317 318 318 318 318 317 316 315 315 314 315 315 315 315 315 315 315 315 313 313 312 311 311 310 311 312 312 312 312 312 312
322 322 321 320 320 321 320 319 317 316 315 315 315 316 317 318 318 318 317 317 315 314 313 314 315 315 316 316 316 317 317 317 317 317 317 317 318 318 317 317 316 315 314 315 315 315 316 315 316 315 314 313 312 311 310 310 310 311 311 312 312 312 311
322 322 322 322 322 321 321 320 319 317 317 316 316 316 316 316 317 317 318 318 317 316 315 315 315 315 315 315 315 315 315 315 316 315 315 316 316 317 317 318 318 316 314 315 315 315 316 316 316 316 315 315 314 312 310 309 310 310 310 311 311 311 310
322 322 322 322 322 322 321 321 320 319 318 317 316 316 316 316 317 317 317 317 316 316 316 315 315 315 315 315 314 314 313 313 313 312 313 315 314 315 316 316 314 313 312 312 313 314 315 316 317 317 316 316 316 314 311 309 309 309 309 309 310 310 309
320 321 321 321 321 322 321 321 321 320 320 319 318 317 316 316 316 317 317 316 315 315 316 316 316 315 315 315 314 313 313 314 313 313 313 312 309 308 308 307 307 306 306 305 306 307 309 311 313 316 317 317 317 316 312 308 308 308 307 307 308 308 308
319 319 320 320 320 320 320 320 321 320 320 320 319 318 317 316 315 316 315 315 315 316 316 316 316 315 314 314 313 313 314 315 315 313 310 307 304 303 302 302 303 303 302 302 302 303 305 305 307 312 316 317 316 314 310 308 308 307 306 306 306 306 307
316 318 319 319 319 319 320 320 320 320 320 320 319 318 318 317 316 315 315 315 316 317 317 316 315 314 313 312 313 315 315 315 312 309 305 303 303 303 302 302 302 302 302 302 302 302 303 305 307 312 315 316 315 313 310 308 307 306 305 305 305 305 306
313 315 317 318 318 319 319 320 320 320 320 320 319 318 317 317 317 317 317 317 317 318 318 315 314 313 312 312 314 315 313 311 308 305 304 303 303 302 302 302 302 302 302 302 302 302 303 306 310 313 314 313 312 311 309 307 306 305 305 305 305 305 305
310 312 314 316 317 317 318 319 319 319 319 319 319 318 317 317 318 318 318 317 317 318 318 315 314 314 312 312 314 313 310 308 306 304 304 303 303 302 303 302 302 302 301 301 302 302 303 306 310 311 311 310 309 307 307 306 305 305 305 305 305 305 305
309 310 311 313 314 315 317 318 319 319 319 318 318 318 318 318 318 318 318 317 317 317 316 315 314 313 313 314 313 311 310 309 306 304 304 304 303 303 303 302 302 302 302 301 302 302 302 305 308 309 308 307 306 305 305 305 305 305 305 305 304 304 304
308 308 309 310 311 313 315 316 317 318 318 318 318 318 318 318 317 317 317 317 316 315 314 314 314 313 314 314 311 308 310 309 306 305 305 304 304 303 303 302 302 302 301 301 301 302 302 303 306 307 307 306 306 306 305 305 305 305 305 304 304 304 304
306 307 308 308 309 310 312 314 316 317 317 317 317 317 317 317 317 316 316 315 315 315 314 314 314 314 313 311 308 308 311 310 308 307 305 303 303 302 302 302 302 302 302 302 302 302 302 303 305 306 306 306 306 306 305 305 304 304 304 304 303 303 303
305 305 306 307 307 308 309 311 312 314 315 316 315 315 317 317 316 316 315 314 315 315 314 314 314 312 311 309 307 307 310 310 309 307 306 304 304 303 302 302 302 302 302 302 302 302 302 303 303 304 305 305 305 305 304 304 303 303 303 302 302 301 301
305 305 305 305 306 307 307 308 308 309 312 314 314 314 315 316 316 315 315 315 315 315 314 314 312 310 310 309 306 305 308 310 308 306 306 306 305 304 303 302 302 302 302 301 301 301 302 302 303 303 303 303 303 303 303 303 302 301 300 300 299 298 298
303 304 305 304 305 306 307 308 307 307 309 311 313 314 314 314 314 315 315 314 313 312 311 310 309 309 310 309 304 303 306 306 304 305 306 306 305 303 303 303 303 302 302 302 301 301 301 302 302 303 303 303 303 303 302 301 300 299 298 297 297 297 297
299 302 303 304 304 305 306 307 308 308 309 310 312 313 314 313 314 314 314 313 311 310 309 310 311 310 308 305 303 303 304 303 303 304 305 305 303 303 303 303 303 303 302 302 301 301 301 302 302 302 302 301 301 300 299 298 297 297 296 296 297 297 297

ECMWFFLT1_850_thetae_015.txt.gz
Theta_e
324 322 323 323 322 321 321 321 321 321 324 325 324 324 324 322 321 321 321 323 324 324 324 325 326 325 325 325 326 328 327 327 326 325 328 330 329 329 328 327 326 324 324 325 325 325 323 322 320 320 318 317 318 320 320 320 320 319 319 319 320 320 321
320 319 321 321 320 320 320 322 323 323 324 324 324 324 324 323 322 322 322 323 324 324 324 324 324 324 325 324 324 327 327 327 327 324 325 328 328 329 328 328 328 325 324 323 323 323 323 321 320 319 318 316 317 318 318 319 319 318 318 319 319 319 319
320 321 321 319 319 320 321 322 322 322 323 324 324 325 325 324 324 324 324 324 324 323 324 324 323 323 323 322 323 326 326 326 326 323 325 328 327 327 328 327 327 326 325 324 322 322 322 320 319 319 319 318 317 317 317 317 317 317 317 317 317 317 318
321 322 321 320 321 321 321 322 322 323 323 324 324 324 324 322 322 323 324 324 322 322 324 324 324 323 321 320 320 322 322 323 324 323 324 326 325 325 326 326 325 325 324 323 322 321 320 319 319 318 318 318 317 316 315 315 314 314 314 314 315 316 316
318 321 322 320 322 322 322 322 322 323 323 324 323 323 323 322 322 322 323 323 323 322 324 323 324 324 323 321 319 320 321 321 322 323 323 324 326 325 325 324 323 323 322 320 320 319 318 318 318 318 317 316 316 315 314 314 313 312 312 313 313 314 314
318 321 321 320 321 320 321 321 321 322 322 323 323 322 322 322 323 323 322 323 322 321 322 323 323 324 324 323 321 321 322 323 323 325 325 325 325 324 322 320 319 319 318 317 318 317 317 318 318 316 315 315 315 314 313 313 311 310 310 310 311 312 313
321 322 321 320 320 319 320 321 321 322 323 322 322 321 322 323 323 322 321 321 321 320 320 320 321 322 323 323 323 322 323 324 324 324 324 323 322 320 318 316 315 314 314 313 315 315 315 317 317 316 315 314 314 314 313 312 311 309 308 308 309 310 311
322 322 321 320 320 319 319 321 322 322 322 321 321 321 321 321 318 317 317 318 319 320 320 319 320 321 322 322 322 321 321 320 320 320 320 318 317 315 314 313 313 312 312 311 312 312 314 315 316 316 315 314 314 314 314 312 311 309 308 308 308 309 310
320 319 321 320 319 319 320 322 322 322 321 320 319 318 318 316 314 313 314 314 316 318 318 319 319 319 320 320 320 318 316 315 315 315 313 311 309 309 310 312 313 312 312 313 313 313 314 315 315 315 315 314 314 314 313 313 312 310 309 309 308 308 309
320 316 315 314 312 315 319 322 322 321 320 317 314 314 316 316 315 314 312 310 311 313 314 316 315 315 316 317 315 314 313 312 311 310 309 307 305 306 309 313 314 313 314 314 314 314 314 315 315 315 316 314 314 314 313 313 313 311 310 309 308 308 307
321 315 312 308 306 308 312 316 319 318 315 311 308 309 311 312 311 310 308 307 307 308 310 311 311 312 313 312 311 309 307 307 307 306 306 306 307 310 313 315 316 315 315 314 313 314 314 315 315 316 316 315 315 315 315 315 314 312 312 310 309 308 307
322 317 311 306 305 305 306 308 311 310 308 307 305 306 309 310 310 308 307 306 306 305 307 308 309 310 310 307 306 306 305 305 306 307 307 308 310 312 314 316 316 314 313 314 314 315 315 315 315 316 316 316 317 316 316 316 316 314 313 311 309 308 308
322 318 310 306 305 305 305 305 306 305 306 306 306 308 311 312 311 310 309 307 306 305 306 306 307 307 306 306 308 306 305 307 308 310 311 312 312 313 314 315 315 314 314 315 316 316 317 316 316 316 316 316 317 317 317 316 316 314 313 312 310 308 309
322 318 310 308 309 307 305 305 305 305 305 306 307 311 314 313 312 312 311 309 308 307 306 306 306 308 308 309 310 309 309 311 312 312 312 313 314 314 315 314 313 313 314 316 315 316 316 316 316 316 316 316 316 316 316 316 316 315 313 312 310 308 309
321 319 313 312 312 310 308 305 305 305 305 307 310 312 314 314 314 313 313 312 310 309 309 309 310 311 311 309 308 310 313 313 312 312 313 313 314 314 314 314 312 311 313 314 314 314 314 315 315 315 315 316 316 316 316 316 315 315 313 312 310 309 309
321 320 318 316 315 313 310 307 306 305 305 310 314 315 314 314 315 315 315 314 313 312 312 312 314 313 310 308 308 311 314 314 313 312 312 312 313 312 313 314 312 310 310 311 313 314 314 314 314 315 315 315 315 315 315 315 315 315 314 312 311 309 309
322 321 321 320 319 318 315 312 310 308 307 310 313 315 314 314 315 316 316 316 315 314 314 313 314 316 314 313 313 312 313 314 313 313 313 313 312 312 313 314 313 311 310 311 313 314 313 313 314 314 315 314 314 314 314 315 314 314 314 313 312 311 310
324 323 322 322 321 320 319 317 317 314 313 313 312 313 314 314 314 314 313 315 315 314 312 310 312 315 314 315 315 314 314 315 315 316 316 315 315 315 315 316 316 315 314 314 315 315 314 314 314 315 315 314 314 314 315 315 315 314 314 314 313 312 312
325 324 323 322 322 321 320 319 319 318 317 317 315 313 314 314 314 312 311 312 312 312 312 310 311 312 311 311 314 315 316 317 317 317 318 318 317 317 317 317 317 317 317 317 317 316 316 315 315 315 315 315 314 313 314 316 316 315 315 314 314 313 313
325 324 323 323 323 322 321 319 320 319 318 319 318 317 316 315 315 314 313 313 313 313 314 314 313 314 314 315 317 318 319 319 319 319 319 319 318 318 318 318 318 318 318 318 317 317 317 316 316 316 315 315 314 313 314 315 316 315 315 315 314 314 314
324 324 324 324 323 323 321 320 320 319 319 320 320 319 319 317 316 316 315 314 314 314 315 316 316 316 317 319 320 321 320 319 320 320 319 319 319 319 319 318 318 318 318 318 317 317 316 316 316 316 315 315 315 314 314 314 315 315 315 315 315 314 314
324 325 324 324 323 323 322 321 321 320 320 321 320 320 320 320 318 317 316 316 316 316 317 318 318 317 319 321 321 322 321 320 321 322 320 320 320 319 318 318 318 318 318 317 316 316 316 316 316 316 315 315 315 315 314 314 314 315 314 314 314 313 313
325 325 325 324 324 323 323 322 322 321 321 321 321 320 321 321 320 319 318 318 318 318 319 318 317 316 318 320 320 320 320 320 321 321 320 320 320 318 317 317 317 318 318 318 316 315 315 315 315 316 315 315 315 315 314 314 314 314 314 314 313 312 312
325 325 325 324 324 324 323 323 322 321 321 321 321 321 321 321 321 320 319 320 320 320 319 316 314 313 315 317 318 317 318 318 318 318 318 318 318 316 316 316 316 317 317 317 316 315 315 315 315 315 315 315 315 315 314 314 314 314 314 314 313 312 312
324 324 324 324 324 324 323 323 323 322 322 320 319 320 321 320 321 320 320 321 321 320 318 316 315 314 313 314 315 316 317 316 316 315 315 316 315 314 314 315 316 316 316 316 315 314 313 314 314 315 316 316 316 316 315 315 314 313 313 313 313 313 312
322 322 323 323 323 324 324 324 323 323 323 322 321 321 320 319 319 319 320 321 322 321 320 318 317 316 314 314 314 315 316 316 315 314 314 315 314 312 311 310 312 313 313 311 310 310 310 309 309 310 313 314 316 316 317 317 316 313 312 312 312 312 312
320 321 321 322 322 323 323 323 324 323 323 323 323 323 322 321 320 319 320 320 321 322 321 319 318 317 316 315 314 314 315 315 315 314 314 315 313 312 310 306 308 313 312 305 302 305 308 307 303 304 306 308 310 313 315 317 317 315 312 310 308 309 310
316 318 319 320 321 321 321 321 321 322 322 323 323 323 323 322 322 320 319 319 319 320 320 319 318 317 316 315 315 315 315 315 315 315 316 315 313 311 307 303 305 310 309 303 300 303 305 305 302 302 304 305 306 308 310 313 315 315 313 310 307 306 307
313 315 316 317 318 319 319 319 319 320 321 322 322 322 322 322 321 320 320 319 319 319 319 319 318 317 315 316 316 315 315 315 315 315 316 315 312 309 306 305 308 308 303 302 302 302 302 303 302 302 303 304 305 306 309 312 313 312 311 309 307 306 305
311 312 313 314 315 317 318 319 319 320 321 321 322 322 322 321 320 320 320 320 319 319 319 318 318 317 316 315 314 314 314 314 314 315 315 313 311 308 304 306 308 306 302 302 302 302 302 302 304 305 305 306 307 309 311 311 310 309 308 306 306 305 305
310 311 311 312 313 315 316 316 318 319 320 321 321 321 321 321 319 319 320 320 319 319 318 317 317 317 317 315 313 313 313 314 314 314 313 312 309 305 302 303 303 302 302 302 302 302 302 302 306 308 307 307 308 309 308 308 307 307 306 305 305 305 305
308 309 309 310 311 313 314 315 315 317 319 320 320 320 321 320 319 319 320 320 319 319 318 317 316 316 317 315 312 313 314 314 314 313 312 310 306 302 302 303 302 302 302 302 302 302 301 302 308 311 309 308 309 308 307 306 306 306 305 305 306 305 305
307 307 307 308 308 309 311 313 314 315 317 319 319 319 320 320 320 320 320 320 319 318 318 318 316 316 316 314 312 313 314 314 313 312 311 309 305 302 303 303 302 302 302 302 302 302 301 302 307 309 309 309 309 308 308 307 305 305 305 305 305 304 303
304 305 305 306 306 307 308 310 312 314 315 317 318 318 319 319 319 320 320 320 319 318 318 318 316 315 315 314 313 313 313 313 313 312 311 308 305 303 303 303 302 302 302 302 301 301 301 301 303 304 305 306 307 307 307 306 305 304 304 303 303 303 302
300 301 302 303 304 305 307 308 309 312 313 314 315 317 318 319 319 319 319 319 319 318 318 318 316 314 314 314 313 312 312 312 311 310 309 308 307 305 303 302 302 302 302 302 301 301 301 300 301 301 301 302 303 304 304 304 303 303 302 302 302 302 301
297 297 299 300 301 302 305 307 308 310 312 312 313 315 316 318 318 318 318 317 318 318 317 317 316 315 313 312 311 310 310 311 310 308 308 308 308 306 304 302 302 302 302 302 301 301 301 300 300 300 301 301 301 302 302 302 302 302 301 301 301 300 300
298 298 299 300 301 301 302 304 306 308 310 311 312 313 315 317 318 316 315 316 316 316 317 316 316 315 314 312 310 308 309 310 309 308 308 308 308 307 304 303 303 303 302 302 301 301 300 300 300 300 300 301 301 301 301 301 301 301 301 300 300 300 300

ECMWFFLT1_850_thetae_021.txt.gz
Theta_e
320 322 326 326 327 326 322 321 323 324 322 320 319 319 317 318 320 323 323 324 324 324 324 325 324 324 324 325 325 325 325 325 326 327 326 325 324 325 326 326 325 325 325 324 323 322 321 321 321 321 321 321 320 319 320 320 319 319 319 319 318 318 319
325 323 324 325 324 321 320 324 325 325 323 321 321 323 321 320 321 323 324 324 324 324 323 324 325 325 325 326 327 327 325 325 325 327 327 326 325 325 325 326 324 324 325 324 323 322 321 321 320 320 319 317 317 317 320 320 319 320 320 319 318 317 317
324 319 317 319 317 316 321 325 325 325 323 320 322 324 323 322 320 321 324 325 324 324 324 324 324 325 326 326 327 328 327 325 324 325 326 326 326 325 325 325 323 323 325 324 323 322 321 320 318 315 313 313 315 317 318 318 319 319 319 317 316 316 315
316 313 311 311 310 311 319 324 324 322 321 320 320 323 324 322 319 319 322 325 324 324 325 325 323 324 325 325 326 326 327 327 325 324 325 325 325 326 326 325 323 323 324 324 323 322 321 318 314 312 313 314 316 317 316 316 316 316 316 315 313 312 311
311 311 309 308 308 308 314 319 319 318 321 321 320 321 322 320 318 319 321 323 324 325 325 323 321 322 324 325 325 324 324 325 324 323 323 325 325 325 325 325 323 323 324 323 322 322 320 318 315 312 313 315 316 316 316 316 315 314 314 313 311 309 308
312 312 311 312 312 312 314 316 317 319 321 321 319 318 319 318 319 321 321 321 322 323 323 321 320 322 324 323 323 322 322 322 323 323 324 325 324 324 323 323 323 321 321 322 321 322 321 318 316 313 312 314 315 314 314 314 314 313 312 311 310 309 308
313 313 315 318 317 316 318 319 321 322 321 321 320 319 320 321 320 320 320 319 320 321 322 322 322 324 323 321 321 320 320 321 322 324 324 324 323 322 322 321 321 318 317 319 320 321 320 318 316 314 312 312 312 311 311 311 311 310 310 309 309 309 309
315 315 317 320 319 318 319 321 323 323 322 323 322 320 322 323 321 320 319 318 319 321 322 323 324 325 324 322 322 321 322 323 323 323 322 321 319 320 320 319 318 316 315 317 319 319 320 318 316 314 312 311 311 310 309 309 308 308 309 309 309 309 309
315 316 316 317 317 316 319 322 323 323 323 324 322 319 321 323 322 320 317 316 320 322 323 323 323 323 323 323 322 322 323 324 323 322 320 317 316 316 317 317 317 316 315 316 318 317 317 317 315 313 313 312 312 310 308 308 308 309 309 309 309 308 309
316 317 317 315 314 315 318 321 322 323 323 323 322 318 318 319 319 317 317 318 320 322 322 323 322 322 321 321 321 322 323 323 323 322 318 316 315 315 315 316 315 314 314 315 316 315 314 314 313 313 313 313 312 310 308 308 308 308 308 308 308 308 308
319 319 319 315 313 314 316 318 320 321 322 321 320 316 313 314 315 315 318 319 320 322 322 322 322 321 319 318 318 318 319 320 320 319 317 315 314 313 312 312 312 312 313 315 315 315 314 313 313 314 315 313 311 310 310 310 309 309 308 308 308 309 309
321 321 319 315 313 313 314 316 316 317 319 317 315 314 312 313 313 314 317 319 319 319 320 321 321 320 317 316 315 314 313 312 312 312 312 311 310 310 309 309 310 312 313 315 315 314 314 314 314 316 316 314 313 312 312 311 310 309 308 309 309 309 309
322 322 320 317 314 311 311 312 312 311 313 313 311 311 311 310 309 308 312 316 317 316 317 317 318 316 314 313 311 308 307 306 306 308 310 311 311 311 311 309 309 311 312 314 314 314 315 315 315 315 316 316 315 314 314 313 312 311 311 311 310 309 308
322 322 320 318 312 308 309 311 310 308 309 310 308 309 309 309 308 306 307 311 314 314 313 312 312 311 309 308 306 306 306 307 307 309 311 312 312 313 314 313 311 311 312 313 313 314 314 314 314 315 315 316 315 315 315 315 315 314 313 312 309 308 308
322 321 321 318 310 309 312 314 313 309 307 307 308 310 311 309 309 308 307 308 309 310 310 309 309 307 307 307 308 309 311 311 311 313 313 313 313 314 314 314 314 313 313 313 313 314 314 314 315 315 315 316 315 315 315 316 315 314 313 312 309 309 309
322 322 321 316 310 311 316 317 313 309 306 306 308 312 312 310 310 311 310 309 308 308 309 310 309 308 310 312 312 313 313 313 314 315 314 313 312 312 313 312 312 313 313 314 314 314 315 315 315 315 316 315 315 315 315 315 315 315 314 313 311 310 310
323 322 319 313 310 312 316 317 313 308 306 305 308 312 313 312 312 312 312 311 310 309 311 311 309 309 312 314 313 314 313 313 313 313 312 311 310 311 311 310 310 312 313 314 314 314 314 315 315 315 316 315 315 315 315 315 314 314 314 313 312 311 311
323 322 318 312 311 313 317 318 312 306 305 306 310 315 314 313 313 314 313 313 312 312 312 311 309 309 312 313 313 313 312 312 312 311 311 311 311 310 310 310 310 310 311 313 314 314 314 315 315 315 315 315 315 314 314 314 314 314 314 313 313 312 312
323 322 320 317 317 318 320 318 309 305 307 309 313 316 314 313 315 315 315 314 314 313 312 311 310 309 309 311 312 312 312 311 311 311 311 311 311 311 311 310 310 309 310 311 312 313 313 314 315 315 315 315 314 314 314 314 315 315 315 315 314 313 314
322 322 321 322 322 321 322 320 312 309 312 314 315 316 315 314 315 315 315 315 315 315 312 311 311 310 308 309 310 311 311 312 311 312 313 313 313 312 312 311 311 312 312 312 312 313 314 314 314 315 315 316 315 314 314 315 315 315 315 315 315 315 314
323 322 322 322 323 322 322 322 318 316 317 317 316 316 315 314 314 315 315 315 316 315 313 311 311 310 309 308 308 309 310 311 311 311 313 314 314 313 313 314 314 315 315 315 315 315 316 315 315 315 315 316 315 315 315 314 314 315 315 315 315 315 315
324 324 323 323 323 322 322 322 322 320 319 319 319 318 317 316 315 315 314 314 314 314 312 312 311 309 309 309 309 309 310 311 310 311 312 313 313 313 313 315 316 316 316 316 316 316 316 317 316 316 315 315 315 315 315 315 314 315 315 315 315 315 314
325 325 324 324 323 323 322 322 322 320 319 320 320 319 319 318 317 316 315 314 314 314 313 313 312 312 311 310 310 310 309 310 310 310 310 311 312 313 313 315 316 316 316 316 316 316 317 317 317 317 316 316 316 316 316 315 315 315 315 315 315 315 314
324 324 324 323 323 323 323 322 321 320 319 320 320 320 319 319 318 318 317 317 315 315 315 314 314 314 313 313 312 311 310 310 310 310 311 312 313 314 315 316 316 316 317 316 316 317 317 316 316 316 316 316 316 316 316 315 315 315 315 315 315 314 315
323 323 323 323 323 323 323 322 321 321 320 319 320 320 320 320 320 319 319 318 318 317 317 315 315 315 315 314 314 313 313 313 312 311 312 314 315 316 316 316 316 317 317 316 316 316 316 316 316 316 315 315 315 315 315 314 315 315 315 315 315 315 315
320 321 322 321 322 322 322 322 322 321 321 321 320 320 320 320 320 319 319 319 319 319 318 317 316 316 315 315 315 315 315 315 315 314 314 315 316 316 317 317 317 317 317 316 316 316 315 315 315 315 315 314 314 315 315 314 314 315 315 315 315 315 315
316 318 319 319 320 320 320 320 320 321 321 321 321 321 321 321 321 320 319 318 319 319 319 319 318 317 316 316 316 317 316 316 316 316 316 316 316 317 317 318 318 317 316 316 315 315 315 314 315 314 314 314 313 312 312 313 314 315 315 315 315 315 315
314 315 316 316 317 318 319 319 319 320 320 320 320 319 320 321 321 321 320 319 319 319 319 319 318 318 318 317 317 317 318 318 318 317 317 318 318 318 318 319 318 317 316 315 315 315 314 314 313 313 312 311 309 308 307 308 309 311 312 313 315 315 315
315 315 315 316 316 317 317 318 319 319 319 319 319 318 318 318 319 320 320 320 320 320 320 320 319 319 319 319 318 318 318 318 318 318 318 318 317 317 318 318 318 316 316 315 315 314 314 313 311 311 310 309 307 305 304 304 304 305 307 309 311 312 314
312 313 314 315 315 315 316 316 317 318 318 318 318 317 318 318 318 318 318 319 319 320 320 321 320 320 320 320 320 319 318 317 317 318 318 317 316 317 318 318 317 316 315 315 314 313 312 312 311 311 309 307 305 304 303 303 303 303 304 306 307 309 310
307 309 309 311 312 312 313 314 315 316 317 317 317 316 316 315 315 315 315 316 318 319 319 319 320 319 319 320 319 319 319 318 317 316 318 318 317 317 317 318 317 317 316 315 314 313 313 313 313 311 308 305 303 303 303 303 303 303 303 304 305 306 307
303 304 305 307 308 309 309 310 311 312 312 313 313 314 314 314 314 315 315 316 317 318 319 318 318 318 317 318 318 318 318 318 318 317 317 317 317 317 317 317 317 317 316 315 314 312 312 313 313 309 304 303 303 303 303 303 303 302 302 303 303 304 304
300 300 301 302 303 304 304 304 304 305 306 307 308 309 311 312 313 314 314 315 316 317 318 318 317 316 316 316 317 317 317 317 317 317 316 316 317 316 315 315 315 315 315 315 314 313 313 315 314 308 302 302 303 303 303 303 302 303 303 303 303 303 303
300 300 300 299 299 300 300 300 300 300 301 301 303 304 305 306 308 310 311 312 313 313 314 315 315 315 315 315 315 315 316 316 316 316 316 316 317 317 315 315 315 315 315 315 314 313 314 314 311 305 302 303 303 303 303 303 303 303 304 304 304 304 303
299 300 299 299 299 299 298 298 299 299 299 299 300 300 301 302 303 304 306 308 310 311 311 311 312 312 313 313 312 313 314 315 315 315 316 316 316 316 316 316 315 315 315 314 313 313 312 309 307 306 305 304 302 302 302 303 304 305 306 307 306 305 303
298 298 298 298 298 298 298 298 298 298 299 300 301 301 302 302 303 304 306 307 309 310 310 310 311 311 310 310 311 313 313 314 315 316 316 316 315 315 315 315 314 313 313 312 310 307 307 307 309 310 307 304 302 302 302 304 306 307 308 307 305 302 301
298 298 298 299 299 298 298 298 298 298 298 299 300 301 302 302 303 303 304 305 306 307 307 309 311 313 312 311 311 312 313 313 314 315 316 316 315 314 314 314 313 312 311 309 305 304 306 309 311 310 307 306 306 304 303 305 306 306 305 303 302 300 300

ECMWFFLT1_850_thetae_024.txt.gz
Theta_e
319 321 323 322 320 317 315 318 319 319 319 318 317 319 323 326 326 325 324 324 324 325 325 324 324 325 325 325 326 326 327 327 327 328 328 327 327 327 327 327 325 324 324 324 323 322 322 321 322 323 322 321 321 321 320 319 319 319 318 318 318 317 317
316 319 322 322 321 317 315 318 320 318 317 317 316 315 316 320 324 324 323 322 323 324 325 325 324 324 324 324 326 326 326 326 327 328 328 327 326 326 325 326 325 324 324 323 323 322 321 322 322 321 320 320 320 321 321 319 319 319 318 316 315 315 314
315 319 323 323 321 316 315 321 322 321 319 318 319 318 316 317 317 319 321 322 323 324 325 325 324 324 323 324 325 326 326 326 326 327 327 326 326 325 325 325 324 323 324 323 322 322 321 321 321 320 320 318 318 320 321 319 319 318 316 314 313 312 313
314 316 319 320 317 312 314 319 322 323 321 320 322 322 321 320 317 316 318 320 322 323 323 323 323 324 324 325 326 326 326 325 326 326 326 326 326 325 325 325 324 322 324 323 322 322 321 321 321 318 317 316 315 318 320 319 318 316 314 313 311 309 310
312 312 312 312 310 310 313 315 318 321 320 321 324 324 324 322 319 319 320 321 322 322 322 322 322 323 324 324 325 325 326 325 324 324 325 325 325 325 325 325 324 322 324 324 322 322 321 321 320 316 314 315 315 316 317 317 316 315 313 312 310 309 308
311 309 307 308 308 310 312 314 315 317 317 320 323 324 324 321 317 320 322 323 324 323 323 323 322 321 322 323 324 324 324 324 322 322 323 324 325 325 324 324 323 323 324 324 323 322 320 318 316 313 313 315 315 316 316 315 315 314 313 311 309 309 308
310 309 308 309 310 311 312 314 315 317 318 319 320 319 320 320 317 319 321 321 323 324 324 323 321 321 322 323 324 324 322 322 321 321 323 324 324 324 324 323 323 324 324 324 323 321 319 314 311 311 314 316 316 315 316 315 314 312 310 310 309 309 308
311 311 312 313 313 313 314 316 319 320 319 320 320 317 317 320 320 320 320 319 320 322 322 320 319 321 322 322 322 321 319 319 320 322 323 324 324 324 324 322 322 322 322 323 322 322 320 314 311 310 312 315 317 316 316 315 313 310 309 309 309 308 308
313 313 315 316 314 314 316 318 320 321 320 320 321 319 317 319 320 319 318 318 320 320 320 320 320 322 321 319 319 319 319 320 321 323 323 322 322 322 321 318 316 317 318 321 322 322 321 316 312 311 311 312 314 315 315 314 311 309 309 308 308 308 308
314 315 316 315 314 314 318 320 320 321 321 321 321 320 318 317 319 318 316 318 320 320 320 321 322 322 321 320 320 320 321 322 323 323 322 321 321 321 319 316 314 315 317 319 321 321 321 317 312 311 311 311 310 311 312 311 309 308 309 308 308 309 308
315 316 316 314 314 315 318 321 322 321 321 321 321 319 316 316 317 317 317 319 320 320 320 321 321 321 321 321 322 322 322 323 322 321 319 318 319 318 317 316 315 315 316 318 319 320 320 317 314 312 311 311 311 310 310 309 308 308 309 308 308 309 309
317 317 317 315 314 315 318 321 321 320 320 319 317 314 311 312 312 314 318 321 321 321 321 321 321 321 321 321 323 324 323 322 321 318 316 315 315 315 316 316 314 315 315 316 316 318 319 317 315 313 312 311 311 311 310 309 309 309 309 308 308 309 309
318 319 318 315 314 316 317 319 320 319 317 313 311 309 308 309 310 312 318 321 320 321 322 321 321 320 318 319 321 323 323 322 320 317 315 315 314 314 314 315 314 315 315 315 315 315 317 316 315 315 314 311 311 310 309 310 311 310 309 309 309 310 309
320 321 319 315 315 316 315 317 317 316 312 308 307 307 307 307 307 309 315 318 318 320 320 321 321 319 317 315 315 317 319 320 319 317 314 313 312 311 312 313 314 314 315 314 314 315 315 315 314 315 315 313 312 310 309 310 312 311 310 311 310 309 309
321 321 319 316 314 313 313 313 313 312 309 307 307 306 306 306 305 307 313 315 315 316 317 317 318 317 315 311 309 309 311 313 313 312 310 310 309 308 309 311 313 314 315 314 314 314 314 314 314 314 315 314 312 310 311 313 314 313 312 312 310 308 309
322 321 319 315 311 310 312 313 311 309 307 307 308 308 307 307 306 306 309 311 311 312 312 312 312 312 310 307 305 306 307 308 309 309 310 310 309 308 307 309 311 313 314 314 314 314 314 314 314 314 315 315 313 312 313 315 315 314 314 313 310 309 310
322 322 319 314 309 310 315 315 310 307 306 307 309 310 309 309 309 309 308 307 308 308 308 308 307 307 306 306 306 307 308 309 310 310 311 310 310 310 309 308 309 311 312 312 313 313 314 314 314 314 314 315 315 314 315 315 314 314 314 313 312 310 310
322 321 318 311 308 311 318 317 309 306 306 307 310 312 311 311 312 312 310 307 306 307 307 306 307 308 308 309 309 310 311 312 311 311 311 311 311 312 311 310 310 310 311 312 313 313 314 314 315 315 315 315 315 314 315 315 314 314 313 313 312 312 311
322 321 315 309 308 313 318 316 308 305 306 309 312 313 312 312 312 313 312 310 308 308 307 307 309 311 311 311 311 312 313 313 312 311 311 311 311 311 311 311 311 311 312 312 313 313 314 315 315 315 315 315 315 314 314 314 314 314 314 313 313 313 312
321 319 314 309 310 316 318 313 305 305 308 311 314 314 313 313 314 314 314 313 312 311 309 308 310 311 312 312 313 312 313 313 312 312 311 310 311 310 310 310 311 311 311 311 313 313 314 314 315 315 315 315 314 314 314 314 314 314 314 314 314 313 313
321 320 318 316 317 321 319 311 305 308 312 313 315 315 314 314 314 315 315 314 314 314 313 311 310 310 311 312 313 313 313 312 312 311 310 310 310 310 311 311 310 310 310 310 312 313 314 314 314 314 314 315 314 314 314 314 314 315 315 315 315 314 314
321 321 322 321 321 322 321 316 312 313 315 315 316 316 315 315 314 314 315 315 315 315 315 313 311 310 310 310 311 313 313 312 312 311 310 310 310 311 311 311 311 311 311 312 312 312 312 312 313 314 314 315 315 314 314 314 314 315 315 315 315 315 314
321 322 323 323 322 322 322 320 319 317 317 317 317 317 317 316 315 314 314 315 315 315 314 313 313 312 310 309 309 310 311 311 311 311 311 310 310 311 310 310 311 312 313 314 314 314 314 313 314 315 315 315 315 315 315 315 315 314 314 314 315 315 314
322 322 323 323 323 322 322 322 322 321 319 319 319 319 318 317 317 316 315 315 315 314 314 314 313 313 313 312 311 310 310 310 310 311 311 311 311 311 310 310 311 312 314 315 315 315 315 315 316 316 315 315 315 315 315 315 315 315 314 314 315 315 315
323 322 322 322 323 323 322 322 322 322 321 320 320 320 318 317 317 317 316 316 315 315 314 315 314 314 314 314 313 313 312 312 311 311 311 311 311 311 311 312 313 314 315 315 316 316 316 316 316 316 317 316 316 316 316 316 316 316 315 315 315 315 315
322 323 322 322 322 323 323 322 322 322 321 320 320 320 319 318 318 318 318 318 317 316 316 316 316 316 315 314 314 314 314 314 314 313 312 312 312 312 313 314 314 315 316 316 317 317 316 316 316 316 316 316 316 316 316 316 316 315 315 315 315 315 315
321 321 321 322 322 322 322 322 322 322 321 321 321 321 320 320 320 320 319 319 319 319 318 318 318 317 317 316 315 314 315 315 315 315 315 315 314 314 314 315 316 317 317 318 317 317 317 317 317 317 316 316 315 315 315 315 315 315 315 315 314 314 314
317 318 319 320 321 320 319 319 320 320 320 320 320 320 320 320 320 320 320 320 320 319 319 319 318 319 318 318 317 316 315 315 315 315 316 316 316 316 316 316 317 317 318 318 318 318 318 317 317 317 317 316 315 315 315 315 314 314 314 314 314 314 315
314 315 316 317 317 317 317 318 319 319 319 319 319 319 319 319 319 320 320 320 320 320 320 319 319 319 319 319 319 318 317 316 316 316 316 317 317 317 317 318 318 317 317 318 318 318 317 316 316 317 316 316 315 315 315 314 313 312 311 312 314 315 314
312 312 313 314 314 315 315 316 316 317 317 318 318 317 317 317 317 318 318 318 319 319 319 319 319 319 319 319 320 320 319 318 317 316 317 318 318 318 318 318 319 318 318 318 317 317 316 316 315 316 315 314 313 313 313 312 311 309 307 308 311 312 311
309 309 309 310 311 311 312 312 313 313 314 315 315 315 315 315 316 316 316 315 316 316 316 317 317 318 318 319 319 320 320 320 319 318 318 318 319 318 318 318 319 318 318 318 317 316 316 315 315 314 313 312 312 311 311 311 310 307 306 307 308 309 310
306 306 306 306 306 306 307 308 308 309 309 310 311 312 312 313 313 314 314 314 314 314 314 315 316 317 317 318 318 319 319 319 319 319 319 319 319 318 318 318 318 318 317 317 317 317 317 316 314 313 312 312 313 312 311 311 310 307 305 306 306 307 309
303 304 304 304 304 303 303 304 304 304 305 306 306 308 309 309 310 310 311 312 312 313 313 313 314 315 315 316 317 317 317 317 317 317 317 317 317 317 317 317 317 317 317 317 317 317 317 316 314 313 313 313 313 312 311 311 310 306 305 306 306 306 306
301 301 302 302 302 302 302 302 302 302 303 303 304 304 304 305 306 306 307 308 309 310 311 311 311 312 312 312 313 314 314 315 315 315 315 315 314 315 315 316 317 317 317 316 317 317 316 316 315 314 313 313 312 312 312 311 308 305 305 305 304 304 304
299 299 299 299 300 300 300 300 301 301 301 301 301 301 301 301 301 302 303 303 304 305 306 307 308 309 310 310 311 311 311 311 311 312 312 311 312 313 314 315 316 317 316 316 317 316 316 316 316 315 314 313 312 312 311 308 306 305 305 305 304 305 305
298 298 298 298 298 298 299 299 299 299 299 299 299 299 299 299 299 299 300 300 301 301 302 303 304 305 307 308 309 309 310 310 311 311 310 310 310 312 313 314 315 315 316 316 316 316 316 315 315 315 315 314 312 312 309 307 307 307 306 305 306 306 306
298 298 298 298 298 298 298 298 298 298 298 299 298 298 298 298 298 298 298 299 299 299 300 301 302 304 306 307 308 308 309 310 311 312 311 311 311 312 313 313 314 315 316 316 316 315 314 314 314 315 314 312 311 311 309 308 308 308 307 307 307 307 306

ECMWFFLT1_850_thetae_027.txt.gz
Theta_e
322 322 323 323 323 323 323 324 324 323 323 324 325 325 325 325 325 325 325 324 324 324 325 324 324 324 324 325 326 325 326 326 326 327 327 328 328 328 327 327 326 325 325 325 324 323 323 323 323 323 322 321 321 319 319 319 318 316 314 314 315 316 315
322 322 322 319 317 317 318 319 319 319 318 320 322 325 326 325 325 325 324 325 324 324 325 324 324 325 324 325 325 325 325 325 326 326 327 327 327 327 327 327 326 324 325 325 323 322 322 322 323 322 322 321 321 320 319 319 317 314 310 310 312 314 315
321 322 321 318 316 315 316 315 315 316 315 316 317 319 323 324 325 324 323 323 323 323 324 324 323 324 324 325 325 325 325 325 326 326 327 328 328 327 327 327 326 324 324 324 323 322 322 321 322 322 321 321 320 319 319 318 316 312 310 308 309 312 315
319 320 319 318 315 315 316 317 318 317 316 316 316 316 317 320 321 322 322 321 321 323 324 324 324 323 323 324 324 325 325 324 325 326 327 328 327 327 327 327 326 324 323 323 323 323 322 321 321 321 320 320 319 316 317 318 316 312 310 309 308 308 310
316 317 316 315 313 314 316 318 320 320 319 318 318 317 317 316 316 318 320 320 320 321 322 322 322 323 323 324 324 326 326 325 325 326 326 326 326 326 326 326 325 324 323 323 322 323 323 322 321 320 319 319 318 315 316 317 315 312 311 309 308 307 306
315 315 314 312 311 313 316 318 320 320 319 320 321 321 320 318 315 314 316 319 319 320 321 320 320 320 322 324 325 325 326 325 325 325 325 325 325 325 325 325 325 324 323 323 323 323 322 321 321 320 318 317 315 314 317 317 313 311 311 309 308 307 306
315 313 312 311 311 313 317 320 321 318 318 320 322 323 322 321 317 315 315 317 319 319 319 319 319 318 319 322 323 324 324 325 324 322 323 324 324 325 325 324 325 324 323 324 323 322 321 321 321 320 317 316 315 314 316 317 314 311 310 309 308 308 307
313 311 309 310 311 313 317 319 320 319 319 320 320 320 321 321 318 316 317 319 320 321 320 319 319 317 318 321 322 322 323 323 321 320 321 323 323 324 324 324 324 324 323 324 323 322 321 320 319 318 315 313 315 316 316 316 314 311 309 308 308 308 307
311 309 310 312 312 313 315 317 319 320 320 321 320 318 319 321 320 317 317 317 317 319 320 320 318 317 319 321 321 321 320 319 318 318 320 322 323 324 324 323 323 323 324 325 324 322 321 317 315 314 312 310 312 314 315 316 314 312 309 308 308 308 307
310 311 314 314 314 314 316 318 320 321 320 321 321 319 319 321 321 318 316 315 316 318 319 319 319 319 320 320 320 319 318 317 318 320 322 323 323 324 323 322 322 323 324 324 323 322 320 315 311 311 312 311 310 309 312 314 313 311 309 308 308 308 308
312 314 316 315 315 315 316 318 320 321 321 321 320 319 318 319 319 317 315 317 319 320 320 321 321 321 320 319 319 318 317 318 320 322 323 322 323 322 320 319 318 319 321 322 322 322 321 316 311 310 312 312 311 309 310 311 310 309 308 308 309 309 308
314 316 316 315 315 315 316 318 320 321 321 321 320 319 318 318 317 314 315 318 319 319 321 321 321 321 320 320 319 319 319 320 322 322 321 320 321 319 317 316 315 316 318 320 320 321 322 319 313 311 312 311 311 311 310 310 310 309 309 308 309 309 309
315 317 316 315 315 315 316 318 319 320 321 320 319 316 313 315 314 313 317 320 319 318 319 319 320 320 320 321 321 320 321 322 321 320 317 316 317 317 316 316 315 315 316 318 319 320 321 320 315 312 312 311 311 311 311 310 310 310 310 309 308 310 309
317 319 317 315 315 314 315 316 318 319 319 317 314 310 309 311 311 314 319 320 319 319 319 319 319 319 319 321 322 322 322 321 320 318 314 313 313 314 314 315 315 315 316 317 318 319 321 320 316 313 313 312 312 311 311 310 309 310 310 309 310 311 309
318 320 318 316 315 313 313 315 316 316 314 311 308 306 307 308 309 314 319 319 320 320 320 320 320 318 318 319 322 323 322 321 320 318 315 314 313 313 313 314 315 314 315 315 316 317 319 319 316 315 314 313 313 312 311 310 309 310 311 311 312 311 309
320 321 319 318 315 313 312 314 314 312 309 307 306 306 306 306 307 313 318 318 318 319 319 319 319 318 316 315 317 320 322 322 321 319 318 316 314 313 313 314 314 314 314 315 315 315 316 316 315 315 314 314 313 312 311 310 309 311 313 313 313 311 309
321 321 321 319 315 312 311 313 312 309 306 306 307 307 306 306 306 310 315 316 315 315 316 316 316 316 315 312 310 312 316 318 318 317 315 313 311 311 311 313 314 314 314 314 314 314 314 314 314 314 314 314 314 314 313 311 310 313 314 314 313 312 310
322 322 321 321 316 311 312 314 311 307 306 307 308 308 308 308 307 308 311 312 312 312 311 311 311 312 311 309 306 306 309 310 311 311 310 309 309 308 308 311 313 314 314 314 314 314 314 313 313 313 314 314 314 314 312 311 312 315 314 314 313 312 310
323 322 322 321 314 310 313 314 309 306 307 308 309 310 310 311 311 310 309 308 308 309 308 308 307 307 307 305 304 305 305 306 308 310 310 310 310 308 308 309 310 311 312 313 313 312 312 312 312 313 313 314 314 314 312 312 314 315 314 313 313 312 311
322 322 323 319 310 308 314 313 307 306 307 309 311 311 311 312 313 313 311 309 307 307 307 307 306 306 305 305 305 306 307 308 309 310 310 311 311 310 310 309 309 309 309 310 310 310 310 311 312 313 313 314 314 314 314 314 314 314 314 314 313 313 312
322 322 320 314 308 311 316 311 305 305 308 311 313 313 312 313 313 313 313 312 311 310 308 307 307 307 307 308 308 309 309 310 310 310 311 310 311 311 310 310 310 310 310 310 310 311 311 312 313 313 314 314 314 315 315 314 314 314 314 314 313 313 313
321 320 316 313 315 318 318 310 305 306 309 312 315 314 313 313 314 314 314 314 314 313 312 310 308 308 309 310 311 311 311 311 310 310 310 310 310 310 310 310 310 310 310 310 310 311 311 312 313 314 314 314 314 314 315 314 314 314 314 314 314 314 314
321 318 317 319 321 321 317 309 306 309 312 314 315 315 315 314 314 314 313 314 314 314 314 313 312 310 309 310 311 312 312 312 312 311 311 310 310 310 310 310 310 310 310 310 310 310 310 310 312 313 314 314 314 314 314 314 314 314 314 314 314 314 314
320 319 320 322 321 321 319 314 312 314 315 315 316 316 316 316 315 314 314 314 314 314 314 313 313 313 312 311 311 311 312 313 313 313 312 312 311 310 310 310 310 311 311 311 311 311 311 312 312 312 312 312 314 314 314 314 314 314 314 314 314 314 314
321 321 322 322 322 322 321 319 318 318 318 318 318 317 318 318 316 315 314 314 314 314 314 314 314 314 314 313 313 312 312 312 312 312 312 312 312 311 311 311 310 311 311 311 311 312 313 315 315 314 314 313 314 315 315 315 314 314 314 314 314 315 314
322 322 322 323 322 322 321 321 321 321 321 321 320 319 320 319 317 316 315 315 315 314 314 314 314 314 314 314 314 313 313 313 313 313 313 312 312 312 311 311 310 310 310 311 311 312 314 315 316 316 316 316 316 316 316 316 315 315 315 315 314 315 314
322 322 322 322 322 321 321 321 321 321 322 322 321 320 320 319 318 316 316 316 316 315 315 315 315 316 316 316 316 315 314 314 314 314 314 314 314 313 313 313 312 311 311 311 312 313 314 315 316 316 317 317 317 317 317 317 317 316 316 315 315 315 315
320 319 319 320 321 321 321 321 321 321 321 322 321 321 321 320 319 318 317 317 318 317 318 317 318 318 318 318 319 318 317 316 315 314 314 314 314 315 315 315 315 314 314 314 314 315 315 316 316 317 317 317 318 318 318 318 317 317 317 316 316 316 315
316 316 315 315 317 319 320 320 321 321 321 322 321 321 321 321 320 320 319 319 319 319 319 319 319 319 319 319 319 319 319 319 318 317 316 315 315 315 315 315 315 316 316 316 316 316 316 316 317 318 318 318 317 317 317 317 317 317 317 316 316 316 315
312 313 313 312 314 316 318 318 319 320 320 320 320 320 320 320 320 320 320 320 320 320 320 320 320 319 319 319 320 320 320 320 320 319 319 318 317 315 315 315 315 316 316 317 317 317 317 318 318 318 317 317 317 316 316 316 315 314 314 315 315 315 314
310 311 312 312 311 312 314 315 317 318 318 319 319 319 319 318 318 318 318 318 318 318 318 319 319 319 319 319 319 319 319 319 320 320 320 319 319 318 317 316 315 316 316 317 318 318 318 318 318 317 317 317 317 317 316 316 315 314 313 313 313 313 311
307 309 310 310 308 307 309 310 312 314 315 316 316 316 317 317 316 316 316 316 316 316 316 316 317 318 318 318 318 318 318 318 319 319 319 319 319 319 318 318 317 317 317 318 318 318 318 318 318 317 317 317 317 316 316 315 314 313 312 312 311 310 310
302 303 304 304 303 304 304 304 305 307 309 310 311 312 313 313 313 313 313 313 313 314 314 314 315 315 315 316 316 316 317 317 317 317 318 318 318 318 318 317 317 317 318 318 319 318 318 318 317 317 317 317 316 316 315 314 313 313 312 312 311 310 311
302 302 301 301 300 301 301 301 302 302 303 304 304 305 305 306 306 306 306 306 306 307 308 309 311 312 313 313 314 315 315 316 316 316 317 316 316 316 316 315 316 316 316 316 316 317 317 317 317 317 317 317 316 316 314 313 312 312 312 312 311 310 310
301 301 301 300 300 300 300 300 300 299 300 300 300 301 301 301 301 301 301 301 301 301 302 302 303 305 306 308 309 310 312 313 313 314 314 314 314 314 313 313 313 313 313 312 313 314 315 316 316 317 317 316 316 315 314 313 313 312 312 311 310 309 309
299 299 299 299 299 299 299 299 298 298 298 298 299 299 299 299 299 299 299 299 299 299 299 299 299 300 301 302 303 304 306 307 308 309 310 311 311 311 311 310 310 310 310 311 311 313 314 315 316 316 316 316 316 315 314 313 313 312 312 311 309 308 308
298 298 298 298 298 298 298 298 298 298 298 298 298 298 298 298 298 298 298 298 299 299 298 298 298 298 298 299 299 300 301 302 304 306 307 308 309 309 309 309 309 309 310 311 312 313 314 316 316 316 316 316 316 315 314 313 312 312 311 310 308 307 306

ECMWFFLT1_850_thetae_030.txt.gz
Theta_e
322 322 324 325 324 325 325 325 325 325 325 324 324 324 325 325 326 326 325 325 326 326 326 326 325 325 326 327 328 328 328 328 328 328 328 328 328 327 327 326 325 325 324 324 324 323 323 324 323 322 320 319 318 318 316 313 311 311 313 314 314 314 313
321 322 323 324 325 325 325 324 324 324 324 324 324 324 324 325 325 326 325 324 324 325 325 325 324 324 326 327 327 327 327 327 327 327 328 328 328 327 327 327 326 325 325 324 324 323 322 323 323 322 320 319 319 318 315 311 309 308 309 312 314 315 313
320 321 322 322 322 323 323 323 323 322 321 321 323 324 324 324 325 325 325 325 325 325 325 325 325 325 325 326 326 326 326 326 326 326 327 327 328 327 326 326 327 325 324 324 324 324 322 322 322 322 321 319 318 317 315 312 309 308 308 309 311 312 310
320 319 318 317 316 317 318 318 318 317 317 317 319 320 321 323 324 323 323 324 324 324 325 324 324 325 325 325 325 325 326 326 325 326 326 327 327 327 327 326 326 325 324 323 323 323 322 321 322 322 321 319 318 317 315 312 310 309 308 307 308 307 306
319 317 315 313 314 316 316 316 315 315 315 316 317 317 317 320 322 323 322 322 322 323 324 324 324 324 324 324 325 325 325 325 324 325 326 327 327 327 327 326 325 326 324 322 323 323 322 322 321 321 321 319 318 317 315 312 310 309 308 307 306 306 306
319 318 315 314 316 317 318 318 317 316 316 317 317 318 317 317 318 319 321 321 321 322 323 322 323 323 323 324 324 324 325 324 324 325 325 326 327 326 326 325 325 325 324 323 323 323 322 321 321 321 320 319 318 315 314 313 310 309 308 307 306 306 306
318 318 317 316 315 318 320 320 318 317 318 319 319 319 318 317 316 315 318 320 321 322 322 320 320 321 323 324 324 325 325 325 324 324 325 326 326 325 325 325 324 324 323 323 323 322 322 322 321 320 319 319 318 315 313 313 311 309 308 308 307 306 306
319 318 318 316 315 318 321 320 319 319 319 320 319 318 318 317 315 314 315 319 321 323 322 321 320 320 321 323 324 324 325 325 324 323 323 325 325 325 325 324 324 324 323 323 323 322 322 321 321 320 319 317 316 315 314 313 311 309 308 308 308 308 307
319 317 315 315 316 318 319 319 319 320 320 321 320 318 317 317 316 315 317 319 321 322 323 322 321 320 320 322 323 323 324 324 324 322 321 323 324 324 324 324 324 325 323 323 323 322 321 321 320 319 318 314 312 312 313 312 310 309 308 308 309 308 308
315 313 312 312 314 316 317 318 319 320 320 321 320 318 318 317 315 315 316 316 317 319 320 321 320 320 321 322 323 323 323 322 321 320 320 322 323 323 324 324 324 325 323 323 324 322 321 321 319 316 315 312 310 309 310 310 309 308 308 308 309 309 308
310 310 312 312 313 315 317 318 318 318 319 320 319 319 318 317 315 314 314 313 315 317 319 320 320 320 321 320 321 321 320 319 318 319 321 323 323 323 324 323 323 324 322 322 324 323 322 320 316 313 313 312 310 309 308 308 308 308 308 308 309 309 308
309 311 313 313 314 315 317 318 316 317 319 318 317 318 317 315 314 313 311 313 318 319 320 321 320 321 320 319 319 319 318 318 319 320 322 322 323 323 322 321 321 322 322 323 323 323 322 319 313 311 312 311 311 310 309 309 309 309 309 308 309 309 309
311 313 315 315 315 316 317 318 316 316 316 316 315 314 312 310 310 310 311 315 319 320 321 321 320 320 320 319 319 319 319 321 322 322 322 322 321 320 318 317 317 319 321 322 322 322 321 319 313 310 311 311 312 311 310 310 309 310 309 308 309 309 309
313 316 316 315 315 316 316 316 316 314 314 313 312 309 307 307 307 308 311 316 318 319 319 319 319 319 320 320 320 320 321 321 320 320 320 320 320 318 316 316 315 315 317 319 320 321 321 320 316 312 311 311 312 311 311 310 309 309 309 309 308 309 309
315 317 316 315 315 315 315 315 314 313 311 311 309 307 306 306 307 309 313 316 317 318 319 319 318 318 319 321 322 321 321 318 317 316 315 316 317 317 316 316 316 316 316 317 318 319 320 320 319 316 313 312 313 313 312 311 310 309 309 310 309 310 310
317 318 317 317 315 314 314 314 314 313 310 308 307 306 306 306 306 310 314 317 318 318 319 319 319 318 317 320 322 322 321 318 317 316 314 313 314 315 314 315 316 316 316 316 317 318 320 320 320 318 315 314 314 313 312 312 311 309 309 310 310 311 311
318 319 319 318 316 314 314 314 313 312 309 307 306 306 306 305 305 308 313 316 317 318 318 317 318 317 316 316 318 320 322 321 319 318 316 315 314 314 313 313 314 315 315 315 315 317 318 319 320 318 316 315 314 314 313 312 312 310 309 310 312 313 312
319 320 320 320 317 314 313 314 313 310 307 306 306 306 306 305 304 307 312 315 315 315 315 314 314 315 315 314 313 313 318 321 321 320 318 316 315 313 312 312 314 314 314 315 314 315 316 316 317 316 315 314 314 314 314 313 312 311 310 310 313 314 312
320 321 321 321 319 314 312 313 312 308 306 307 307 308 309 308 307 307 308 310 312 312 311 311 311 312 313 313 309 307 310 315 317 316 314 313 312 310 310 311 313 314 314 314 314 314 314 314 314 313 313 313 313 313 314 313 313 312 310 311 313 314 313
321 322 321 321 319 314 312 314 312 307 306 308 309 310 311 311 310 310 308 307 307 308 308 308 308 308 309 309 307 305 306 309 310 311 310 311 311 310 309 310 312 313 313 314 314 313 313 313 312 312 312 313 313 314 314 313 312 311 311 313 314 314 313
321 321 321 321 319 313 311 313 310 306 307 310 310 311 312 312 312 312 311 310 308 307 307 307 307 307 306 306 305 305 305 306 308 310 311 311 312 312 311 311 311 312 312 312 313 313 313 313 312 313 313 313 313 314 314 314 313 312 313 314 314 314 313
319 321 322 321 317 311 311 311 307 305 308 311 312 312 312 312 313 313 313 313 312 311 310 309 308 307 307 306 306 306 306 307 309 311 312 311 312 313 313 313 312 312 312 313 313 313 313 313 313 313 313 313 314 314 314 314 314 314 314 314 314 314 314
319 321 321 318 313 312 312 309 306 306 309 312 314 314 313 314 313 313 313 313 313 313 313 312 311 310 309 308 308 309 309 310 310 311 312 312 312 312 313 313 313 313 313 312 312 311 311 311 311 311 312 312 313 314 314 314 315 314 314 314 314 314 314
320 321 318 316 316 315 312 307 306 308 309 312 315 314 315 315 314 314 314 313 313 312 313 313 313 312 312 310 310 310 310 310 311 311 311 311 311 311 312 312 312 312 312 311 311 310 310 310 310 310 311 311 312 312 313 313 314 314 314 314 314 314 314
320 318 317 318 319 317 310 306 308 309 309 312 314 315 316 316 315 315 314 313 314 313 313 314 313 313 313 313 312 312 311 311 311 310 310 310 310 310 310 310 310 311 311 310 311 311 311 311 311 311 312 313 314 314 314 313 313 314 314 314 314 314 314
318 317 318 320 321 319 314 310 311 312 313 315 316 316 316 317 317 316 315 314 314 314 314 314 314 314 314 314 314 314 313 313 313 312 312 312 311 311 311 311 311 311 311 311 311 311 311 311 311 311 312 314 315 316 316 316 315 315 315 315 314 314 314
317 318 320 320 321 321 319 317 317 318 318 319 319 319 318 317 318 318 317 316 315 314 315 314 314 315 314 314 315 314 315 315 314 314 314 313 313 313 313 314 313 313 313 312 312 312 312 312 312 312 313 314 315 315 316 316 317 317 317 316 316 316 315
319 319 320 320 320 321 320 320 321 321 321 321 321 321 320 319 319 319 318 317 316 315 315 315 315 315 315 315 315 315 316 316 316 316 315 315 314 314 314 314 314 314 315 314 314 314 313 313 313 313 314 314 315 316 316 316 317 317 317 317 317 317 317
318 318 318 318 319 319 319 319 319 319 319 321 321 321 321 320 320 320 319 318 317 317 316 317 316 316 316 316 316 317 317 317 317 317 317 317 317 316 315 315 314 314 314 314 314 314 314 314 314 314 315 315 316 316 316 317 317 317 317 317 318 317 317
314 315 314 314 315 316 315 316 316 316 316 318 319 319 320 320 320 320 320 319 319 319 318 318 318 318 318 318 318 318 318 318 318 318 318 318 318 318 317 317 316 316 315 315 315 315 315 315 315 315 316 316 317 317 317 318 318 318 317 317 317 317 317
313 313 312 313 313 313 312 312 312 311 312 314 317 318 318 319 319 319 319 319 319 319 319 319 319 319 319 319 319 319 319 319 319 319 319 319 318 318 318 318 318 318 318 318 317 316 316 315 315 315 316 316 317 318 318 318 318 318 318 317 317 317 317
309 308 307 309 311 310 310 310 309 308 309 310 312 314 316 317 318 318 318 318 317 317 316 316 316 317 317 318 318 318 318 318 318 319 319 319 318 318 318 318 318 318 318 318 319 318 318 317 316 316 316 317 318 317 317 317 317 317 317 317 317 317 316
306 305 304 305 305 305 305 307 307 308 308 308 309 311 312 313 315 315 315 315 315 315 315 314 314 314 314 315 315 315 316 316 316 316 317 317 317 317 317 318 318 318 318 318 318 318 318 318 318 318 318 318 318 317 317 317 317 317 316 315 316 316 315
305 305 304 304 304 304 304 304 304 304 305 305 306 307 307 308 309 309 310 310 311 311 312 312 312 312 311 312 313 313 313 313 314 314 314 314 314 314 314 315 316 316 317 317 317 317 316 317 317 317 317 317 316 316 316 316 317 317 315 315 314 314 314
303 303 302 302 301 302 303 302 302 302 302 302 303 304 305 305 305 304 304 304 304 305 305 306 306 306 306 306 307 307 308 309 310 311 311 312 312 312 311 312 312 314 315 316 315 315 315 315 314 314 314 314 313 313 314 316 316 316 315 315 314 313 313
300 300 300 300 300 300 300 300 300 300 300 301 302 302 303 303 303 302 302 302 301 300 300 300 301 301 301 301 301 301 302 302 303 304 305 306 307 308 309 310 310 312 313 314 314 314 313 313 312 312 312 311 312 313 314 315 316 316 316 315 313 313 312
298 298 298 298 298 298 299 299 299 299 299 299 299 299 300 300 300 300 300 300 299 299 299 299 299 299 299 299 299 299 299 299 299 299 299 300 301 301 302 304 305 306 308 310 310 311 311 310 310 311 311 310 312 314 315 315 315 315 315 314 313 312 312

ECMWFFLT1_850_thetae_033.txt.gz
Theta_e
325 324 325 326 327 327 327 326 325 325 325 325 325 326 326 326 326 327 327 326 326 326 326 326 326 325 325 327 327 327 326 327 327 327 327 328 328 327 326 326 325 325 324 323 323 324 324 324 322 319 318 317 316 315 314 314 314 315 314 312 311 310 309
324 325 325 326 326 326 325 325 325 325 326 325 325 324 325 326 326 327 326 326 326 326 326 326 326 326 326 327 328 328 327 327 327 328 327 327 327 327 327 326 325 325 324 323 323 323 323 324 323 320 318 316 314 312 310 310 311 313 313 313 312 309 307
324 325 325 325 325 324 324 324 325 325 325 325 325 324 324 325 326 326 325 325 325 326 326 326 325 326 326 327 328 328 327 327 328 328 327 327 327 327 326 326 326 325 324 324 324 323 323 323 323 322 320 318 314 310 309 308 308 310 311 312 311 308 306
323 323 324 324 324 324 324 324 324 324 323 323 324 324 324 324 324 325 324 324 324 324 325 325 325 325 326 326 327 327 327 327 327 327 327 327 327 327 326 327 327 326 325 324 324 324 323 323 323 323 322 319 315 311 309 308 307 308 309 309 308 306 306
321 321 323 322 321 321 321 320 320 319 318 318 319 321 323 323 323 323 323 323 324 324 324 324 325 325 325 325 326 326 326 326 326 326 326 326 327 327 327 327 327 326 325 324 324 324 323 322 322 322 322 320 316 312 310 309 307 307 307 307 306 306 306
318 318 318 317 316 316 316 315 315 315 315 316 317 318 320 321 322 322 322 321 322 324 324 324 324 325 325 325 325 326 325 325 326 326 326 327 326 327 328 327 327 327 326 325 324 324 323 322 321 322 321 320 317 312 309 308 308 307 306 306 306 306 306
317 315 314 314 315 316 316 316 316 316 316 317 318 318 319 319 319 320 321 321 322 323 323 323 324 324 325 325 325 326 325 325 325 326 326 327 327 327 327 327 327 326 325 324 324 324 323 322 321 321 320 319 316 313 311 309 309 308 307 306 306 306 305
316 314 314 315 316 318 318 317 318 318 318 318 317 318 319 318 317 317 319 320 322 322 322 322 322 323 324 325 325 326 326 326 326 326 326 326 326 326 326 326 327 326 324 323 324 323 322 322 321 321 320 317 315 314 313 311 310 309 308 307 307 306 305
316 315 314 315 317 318 318 319 319 319 319 318 316 316 318 318 317 317 319 320 322 322 322 321 321 321 322 324 325 325 325 326 326 325 324 325 326 326 325 326 326 325 324 323 323 323 322 322 321 320 320 315 313 314 315 314 312 310 309 308 308 307 306
316 315 314 315 317 318 318 320 320 319 318 316 315 316 317 318 317 317 319 320 321 323 322 322 321 320 319 322 324 324 324 325 325 324 322 323 325 325 325 325 325 325 324 323 323 322 321 322 320 319 319 314 311 313 314 315 313 311 309 309 308 307 306
317 317 316 315 316 317 318 320 321 319 317 314 313 314 317 317 317 316 317 317 319 320 321 320 319 319 320 321 322 323 323 323 323 322 320 321 323 324 324 325 325 325 324 323 323 322 321 321 319 317 316 313 312 311 311 313 313 310 310 309 308 308 307
318 317 316 315 316 317 318 320 320 320 320 315 311 313 316 317 316 315 314 315 316 317 318 319 318 319 321 321 321 322 321 319 319 320 320 321 322 323 323 324 324 324 324 323 323 323 321 320 317 314 313 313 312 309 308 312 313 311 310 310 309 309 308
320 319 316 315 316 318 319 320 321 321 321 316 311 310 312 315 315 313 313 317 320 320 320 320 320 320 320 319 319 319 318 318 319 320 321 322 323 322 322 322 323 323 323 322 323 323 321 318 314 312 313 312 311 309 308 311 313 311 309 309 309 309 309
321 319 316 316 317 318 319 321 321 322 321 317 311 308 308 311 311 312 316 320 321 321 321 321 321 321 320 319 319 320 320 320 321 322 322 322 320 318 317 318 319 321 322 322 322 321 320 317 313 311 312 312 311 311 309 310 312 312 309 309 310 310 309
319 316 316 316 317 318 319 320 321 321 320 316 311 308 308 308 309 314 318 320 320 320 320 320 320 321 321 321 320 321 321 320 320 320 320 319 317 315 315 315 315 317 320 322 322 321 320 317 313 312 313 312 311 311 311 311 311 311 310 309 310 310 310
316 316 316 317 317 317 319 320 320 320 318 313 310 308 307 307 310 316 319 319 320 320 319 318 319 320 322 322 321 320 319 316 315 316 316 316 316 316 316 316 315 315 316 318 320 320 320 319 317 315 314 313 312 312 312 312 312 311 310 309 310 310 311
316 317 318 318 317 317 319 319 319 318 313 309 308 307 307 306 309 316 319 319 319 319 319 318 317 318 320 322 322 320 318 316 315 314 314 314 315 315 316 316 317 316 316 316 317 318 320 320 320 318 317 315 314 314 314 313 313 312 311 310 309 310 311
318 319 319 319 318 317 319 318 316 314 310 307 306 306 306 305 306 313 317 317 317 317 317 317 317 316 316 318 321 322 321 319 318 316 316 316 316 316 317 316 316 316 316 315 316 317 319 320 320 320 319 317 315 315 314 314 313 313 312 311 310 310 311
319 320 319 319 318 318 318 316 313 311 308 306 306 305 305 305 305 310 315 315 316 316 315 315 315 315 315 314 316 319 321 321 320 320 319 319 318 316 315 314 314 314 315 315 315 315 316 318 319 318 317 316 315 314 314 314 314 314 313 312 311 310 311
319 320 320 320 319 319 317 314 312 309 307 307 307 307 307 307 307 309 312 313 313 313 312 311 311 313 314 312 310 311 316 320 320 319 318 315 313 312 311 312 313 314 314 314 314 314 314 315 315 315 314 314 314 313 313 314 314 314 313 313 312 310 311
319 320 320 320 320 319 318 315 310 308 308 309 310 310 311 311 310 310 309 309 309 309 309 309 309 309 310 310 307 306 310 314 315 313 312 311 311 310 309 310 313 314 314 314 314 314 314 313 313 313 313 313 313 313 313 314 314 314 313 313 312 310 311
320 320 321 320 319 318 316 313 310 308 309 310 311 312 312 312 312 312 310 309 309 309 309 310 309 309 309 309 308 305 306 308 309 309 310 311 311 312 311 310 312 312 312 313 312 312 312 312 313 313 313 313 314 313 314 314 314 314 314 313 313 312 313
320 319 319 319 320 318 315 312 309 308 310 311 311 312 312 313 313 313 312 312 312 312 312 311 310 310 311 311 311 309 307 306 307 309 311 311 311 312 313 313 312 312 312 312 312 312 312 312 312 312 311 312 312 313 313 314 314 314 314 314 314 314 314
319 318 317 319 320 318 314 312 309 307 309 311 312 313 313 314 314 313 313 313 313 313 314 313 312 311 311 311 311 312 311 311 311 311 312 312 312 312 313 313 313 313 313 313 313 313 312 311 311 310 310 311 311 311 312 313 313 314 314 314 314 314 314
318 317 318 320 319 315 313 312 310 307 309 311 313 314 315 315 314 314 314 314 313 313 314 314 314 313 313 312 311 312 312 312 312 313 313 313 313 313 313 313 313 312 313 313 313 312 311 311 311 311 311 311 311 312 313 314 314 314 314 314 314 314 314
318 318 319 320 317 313 312 312 310 308 309 311 312 313 315 316 316 314 314 314 313 314 314 314 314 314 314 314 313 313 312 312 312 312 312 312 312 312 312 312 312 312 312 312 312 312 312 312 312 312 312 312 312 312 312 313 314 315 315 315 315 316 316
318 318 319 318 316 314 312 311 310 310 311 312 313 314 316 317 317 317 316 315 314 314 314 314 314 314 314 314 314 314 314 313 313 313 313 313 313 312 312 312 312 312 313 313 313 313 313 313 313 313 313 313 313 313 313 314 314 315 315 316 316 316 317
318 318 318 317 317 316 313 312 313 314 315 315 316 318 318 318 318 318 318 317 316 315 315 314 314 314 314 314 314 314 314 314 314 314 314 314 314 314 314 313 313 313 313 314 314 314 314 314 314 314 314 314 314 314 314 314 315 315 316 316 316 317 317
317 317 317 318 318 318 316 316 317 317 318 318 319 319 319 319 318 319 319 318 318 317 316 316 315 315 315 316 316 316 316 316 316 316 316 316 316 316 316 316 315 315 315 315 314 314 314 314 314 314 314 315 315 315 315 315 315 315 316 316 317 317 317
314 316 316 317 318 318 316 316 317 317 318 319 319 319 318 317 317 317 317 318 319 318 318 318 317 317 317 317 317 317 317 317 317 318 318 318 318 318 318 318 318 317 317 317 317 316 316 316 315 315 315 315 315 315 315 315 316 316 316 316 317 317 317
312 313 315 316 316 315 314 314 315 315 316 316 317 317 316 316 316 315 315 316 318 319 319 319 319 318 318 318 318 318 318 318 319 319 319 319 319 319 319 319 319 319 318 318 318 318 318 318 318 317 317 317 316 316 316 316 316 315 316 316 316 317 317
310 309 310 312 312 312 312 312 313 314 313 313 313 313 313 313 313 313 313 313 315 317 318 318 318 318 318 318 318 318 318 318 317 317 317 317 317 317 317 318 318 318 318 319 319 319 319 318 319 319 318 318 318 318 317 317 316 316 316 316 317 317 317
309 308 307 307 306 307 307 308 309 310 310 310 311 312 312 311 311 311 309 307 308 310 312 313 313 314 314 314 314 313 313 313 313 312 312 312 312 312 313 313 313 314 315 316 316 317 317 318 318 318 318 318 318 318 318 317 317 317 317 317 317 317 317
305 305 305 305 304 304 304 304 304 304 305 306 307 309 310 309 310 310 309 306 304 304 305 305 305 305 306 306 306 306 306 306 306 306 306 306 307 307 307 308 308 309 309 310 311 312 314 315 316 317 317 317 317 317 316 317 316 316 317 317 317 316 316
301 301 302 302 302 302 302 301 301 301 302 303 303 303 304 304 305 306 306 306 305 304 304 304 304 305 304 303 303 303 303 303 303 303 303 303 304 304 304 304 305 305 305 306 306 307 308 310 312 313 314 315 315 315 315 315 315 315 315 315 315 315 315
299 299 299 299 299 299 299 299 299 299 299 300 300 300 300 300 300 300 301 301 302 302 303 303 303 303 303 302 301 302 302 303 303 303 303 303 303 303 303 303 302 302 303 303 303 304 304 305 306 308 310 311 312 313 313 313 313 314 314 313 313 313 314
297 298 298 298 298 298 298 298 298 298 298 298 298 298 298 298 298 299 298 299 299 299 299 299 299 300 300 299 299 300 300 300 301 301 301 301 301 300 300 300 300 300 300 300 301 301 301 301 302 303 304 305 307 308 310 311 311 312 312 312 311 311 311

ECMWFFLT1_850_thetae_036.txt.gz
Theta_e
331 328 328 329 329 329 328 328 328 327 328 327 327 327 326 327 328 327 328 330 330 330 328 327 329 330 331 331 331 331 331 331 330 327 327 328 328 327 327 326 327 328 327 327 327 326 326 325 324 324 323 321 320 318 316 315 316 317 315 313 312 310 308
331 328 327 328 327 328 328 328 328 327 327 327 327 327 327 328 327 327 328 329 329 329 328 328 329 329 331 331 330 330 331 331 328 326 326 328 328 327 327 326 328 328 327 328 327 325 326 325 325 324 321 319 318 316 315 316 315 314 314 313 312 309 306
330 327 326 327 327 328 328 328 327 326 326 327 327 327 327 328 328 327 327 327 328 327 327 329 328 327 328 328 328 328 328 328 327 326 326 327 328 328 327 326 328 328 327 328 327 326 326 326 325 323 322 321 319 315 312 314 315 314 315 314 312 309 307
329 326 325 326 327 327 328 327 325 324 325 324 325 324 325 326 328 328 327 326 326 326 327 329 327 325 325 325 327 328 327 326 326 327 327 327 329 329 327 326 327 328 326 327 327 327 326 326 325 323 322 321 319 315 310 310 313 313 313 314 311 308 308
325 323 323 324 325 327 328 326 323 322 322 321 320 320 321 322 324 326 326 326 325 325 327 329 327 325 325 324 326 327 327 327 326 327 327 327 329 330 329 327 327 327 325 325 325 326 326 326 325 324 323 321 318 315 310 309 311 311 311 312 309 308 308
323 322 323 322 323 325 325 324 323 324 323 322 320 319 319 319 320 322 324 326 326 324 325 326 327 327 326 325 325 327 327 327 327 326 327 327 328 329 328 326 326 326 325 324 324 325 326 325 325 324 322 321 318 314 311 310 310 310 310 309 309 309 308
322 322 324 323 322 324 324 322 325 326 325 324 323 321 319 318 318 319 321 324 325 325 324 324 327 328 326 325 326 326 326 326 326 326 326 326 326 327 325 323 325 326 324 324 325 326 326 325 325 324 322 321 318 314 312 311 310 310 310 309 309 309 308
322 323 325 324 322 324 325 324 325 326 326 326 324 322 319 318 318 318 319 320 321 324 324 324 325 326 325 325 325 325 326 325 325 325 325 324 324 325 325 322 323 325 324 324 325 326 325 325 325 323 322 320 317 314 313 311 311 311 310 309 309 309 308
322 324 325 323 319 320 323 325 325 325 326 326 324 321 319 319 319 318 317 318 318 321 324 324 324 325 324 324 324 325 325 324 324 325 324 324 323 324 326 324 323 324 324 324 325 326 325 325 325 323 321 319 317 315 314 312 313 312 310 310 309 308 307
322 323 321 318 317 317 320 322 322 322 322 322 321 319 319 319 319 318 317 318 317 318 320 321 323 324 324 323 324 324 324 324 325 325 325 324 324 325 328 327 325 324 324 324 326 326 324 324 324 322 320 318 316 315 314 314 314 312 311 311 310 308 307
321 320 317 317 319 319 320 321 321 320 319 317 317 317 318 319 319 318 318 318 318 319 319 320 320 322 322 323 325 325 325 326 327 327 325 325 326 328 329 327 326 326 326 325 326 325 324 323 323 321 319 317 316 315 314 314 314 313 312 312 311 309 307
322 319 317 319 320 321 321 321 320 319 317 316 317 317 319 320 319 318 319 318 318 320 321 321 319 318 321 323 324 325 325 325 327 327 324 324 326 327 326 326 327 328 325 324 325 324 323 323 322 320 318 317 315 314 314 314 314 314 314 313 313 310 308
321 320 319 319 321 322 322 320 319 318 317 316 316 316 320 322 321 320 319 317 317 318 320 321 319 317 321 323 323 324 323 323 325 325 321 320 322 324 325 327 328 328 325 324 324 322 322 323 322 320 318 316 315 314 314 314 314 316 315 314 314 311 309
322 321 319 319 322 323 322 320 319 317 318 316 314 317 321 322 321 321 319 317 317 317 318 318 317 318 322 324 324 324 321 320 323 323 320 320 322 324 326 328 329 328 325 325 324 322 321 321 320 318 318 316 315 315 315 315 314 315 315 315 314 313 310
322 322 320 320 322 322 321 320 318 318 318 315 315 320 322 318 318 320 318 317 318 318 319 318 318 321 323 323 322 320 318 319 322 322 321 321 322 322 325 328 328 326 324 325 325 322 320 319 318 317 317 316 315 315 315 315 314 315 315 314 314 314 312
322 322 320 320 321 322 322 320 318 319 319 315 315 319 319 315 317 320 319 319 320 321 321 321 321 322 321 320 320 319 319 321 322 321 321 321 319 318 319 322 324 323 323 325 324 322 320 319 317 316 316 316 316 315 315 315 314 315 315 314 314 314 313
321 320 320 320 320 321 321 319 319 320 320 318 316 314 314 315 317 319 320 321 321 321 321 322 322 321 321 320 319 319 320 321 321 320 320 319 319 317 316 317 318 319 321 324 324 323 321 319 318 316 316 316 316 316 316 316 315 315 315 315 314 314 314
320 319 319 320 320 320 320 319 319 319 318 317 316 313 313 315 318 319 320 320 320 320 320 320 321 321 321 320 319 319 318 319 320 320 319 318 319 319 318 316 315 316 317 320 323 323 320 319 319 318 317 316 316 317 317 316 316 316 315 315 315 314 314
319 319 320 320 320 321 321 319 318 318 318 316 315 315 315 316 317 319 319 319 319 319 319 319 320 320 321 321 320 319 318 318 318 318 318 318 318 318 319 318 315 315 315 316 317 319 319 319 320 319 318 317 316 317 317 316 316 316 316 316 316 315 314
319 319 320 320 320 321 321 320 318 318 318 316 314 314 315 315 316 318 318 318 318 318 317 318 319 319 319 320 320 320 319 319 318 318 318 318 318 318 318 317 315 315 316 315 315 316 317 318 319 319 319 318 318 317 317 317 316 316 317 316 316 316 315
320 320 320 319 320 320 318 318 317 315 316 316 314 315 314 314 316 317 317 317 317 317 316 316 317 317 318 318 318 319 320 320 320 319 319 319 318 317 316 315 315 315 315 315 315 315 316 317 317 318 318 318 317 317 317 317 317 316 316 316 316 315 315
321 321 320 320 321 320 317 316 314 313 315 316 315 315 315 314 315 315 315 317 316 315 315 314 314 315 316 317 316 316 317 320 320 320 319 317 314 313 313 313 314 315 314 314 315 314 316 316 316 317 318 317 317 317 317 317 317 317 316 316 316 316 315
321 320 320 320 320 319 316 314 312 311 315 317 314 315 316 316 316 316 316 315 313 310 310 310 310 310 312 314 315 315 316 318 319 318 317 317 315 313 314 313 312 312 313 314 314 314 314 314 313 314 317 317 317 317 318 317 317 317 317 316 316 316 315
320 320 320 320 319 317 316 315 312 310 312 314 314 313 315 316 316 317 315 313 310 309 310 310 310 310 310 311 313 315 315 317 318 318 318 318 317 316 316 316 313 312 312 312 313 312 312 312 312 312 313 313 313 314 315 317 317 317 317 316 316 316 316
320 320 320 319 318 317 317 316 315 310 309 312 313 312 313 314 314 314 314 313 312 312 312 312 312 312 311 312 312 313 315 315 315 317 318 319 319 318 318 319 317 314 313 313 313 313 313 313 312 312 311 311 311 311 312 313 315 317 318 317 317 316 316
320 320 320 319 318 318 318 317 315 310 309 311 312 312 313 315 315 314 314 313 313 313 313 314 314 313 313 312 312 313 316 315 315 317 317 317 318 318 319 319 318 315 314 313 313 313 313 313 312 311 311 311 311 311 311 311 312 313 316 317 318 318 317
320 319 319 318 318 318 318 316 314 311 309 311 312 313 314 315 317 316 315 314 314 314 314 314 314 314 314 314 313 314 316 315 315 316 315 315 315 316 316 316 317 317 316 314 313 314 313 314 313 312 311 311 311 311 311 311 311 312 313 315 316 317 318
319 319 318 318 318 317 316 314 314 311 309 310 312 313 314 315 317 317 316 315 315 314 314 314 314 314 314 314 314 314 314 314 314 314 314 313 313 313 313 313 314 315 316 315 314 314 313 314 314 313 312 312 312 312 311 311 311 312 313 313 314 315 317
318 318 318 317 317 316 314 313 313 312 311 311 312 314 314 315 317 318 318 317 317 316 315 314 314 314 314 314 315 315 315 315 315 315 315 314 314 314 314 314 314 314 315 315 315 314 313 314 314 314 314 313 313 314 314 313 312 313 314 314 314 315 316
317 317 317 316 316 315 314 313 313 312 313 314 315 316 316 317 317 318 318 318 318 318 317 316 316 316 316 316 316 316 316 317 317 317 317 317 317 317 317 317 317 317 317 318 317 316 316 316 316 316 316 316 316 316 316 316 315 315 315 315 315 315 315
315 315 315 316 315 315 314 314 314 314 315 316 316 316 317 318 318 318 319 319 319 319 318 318 318 318 317 318 318 318 318 318 318 318 318 318 318 318 318 319 319 319 319 319 319 318 319 319 318 319 318 319 319 319 319 319 318 317 317 316 316 316 316
314 314 315 315 315 315 314 315 314 314 315 315 315 315 315 316 316 317 317 317 318 319 319 318 318 318 318 318 318 318 318 317 318 318 318 317 317 317 317 317 317 317 317 317 317 317 317 317 317 317 318 318 319 318 319 320 320 320 319 318 317 317 317
313 314 314 313 313 312 313 314 314 314 315 315 315 315 314 315 315 315 315 314 315 316 317 317 316 315 315 315 315 314 313 313 313 313 313 312 311 310 310 310 310 311 310 310 310 310 310 311 311 311 313 314 314 315 316 316 317 318 319 319 318 317 317
311 312 312 312 310 309 308 309 309 310 312 313 312 311 311 312 313 313 313 313 313 314 315 315 312 310 310 310 309 308 307 307 307 306 306 305 305 304 303 303 304 306 306 305 305 305 305 305 305 305 306 307 309 311 313 314 314 315 316 317 317 317 317
304 305 307 308 307 305 305 304 304 304 305 305 305 305 305 306 307 307 308 310 311 311 312 311 309 308 308 308 307 306 306 306 305 304 303 303 302 302 302 302 302 304 305 304 303 303 303 302 302 302 302 302 303 305 308 310 312 314 315 315 316 316 316
299 299 300 301 301 300 300 301 301 300 301 300 300 300 300 300 301 301 302 303 304 305 306 305 304 303 303 303 303 303 303 303 302 302 301 302 301 300 300 300 301 302 302 302 301 301 300 300 300 300 300 300 300 300 301 303 305 306 309 311 312 314 315
298 298 298 298 298 298 298 298 298 298 299 298 299 299 298 299 299 299 299 299 299 300 300 299 299 299 299 299 299 299 300 300 299 299 299 299 299 299 299 299 299 299 299 299 299 299 299 299 299 299 299 299 299 299 299 299 299 300 301 303 305 309 312

ECMWFFLT1_850_thetae_042.txt.gz
Theta_e
329 329 329 329 328 328 328 327 327 327 327 327 327 327 328 328 328 328 328 328 328 329 329 329 329 330 331 331 330 330 331 329 328 327 326 327 327 326 327 327 328 328 327 327 327 327 327 327 327 326 325 323 322 321 321 322 322 321 319 319 320 319 318
329 330 330 329 329 329 328 328 328 327 328 329 328 328 329 329 328 328 328 328 328 330 330 330 330 330 331 331 330 330 330 330 329 327 327 328 327 326 327 327 327 328 327 327 327 327 326 327 327 326 325 322 320 321 321 321 320 319 319 321 322 321 320
329 330 330 330 330 329 327 327 328 328 329 329 329 329 329 330 329 329 329 329 329 329 330 330 330 330 331 331 330 330 330 329 328 326 326 328 327 327 327 326 326 326 327 328 327 327 326 326 327 326 325 322 320 320 320 319 319 318 318 319 320 320 320
329 331 330 329 328 326 324 323 323 325 328 329 330 330 330 331 330 330 330 330 329 329 329 331 330 329 331 331 330 330 329 328 327 325 326 327 327 326 327 325 324 325 327 327 326 327 326 326 326 326 324 323 320 318 318 318 317 317 316 316 317 317 317
329 331 329 328 327 325 324 324 324 326 329 329 330 329 329 330 330 329 330 330 330 329 329 330 330 329 330 331 330 328 328 328 327 325 325 325 325 326 326 324 323 324 326 326 325 325 325 326 325 325 324 322 319 317 316 317 316 316 315 315 315 315 315
329 331 331 331 330 327 327 329 329 330 331 329 328 328 327 328 329 328 329 329 329 329 329 330 330 329 330 331 330 328 327 327 326 326 325 324 324 326 326 324 323 324 325 324 324 325 325 325 325 324 323 321 319 317 315 316 316 315 315 315 314 314 313
328 331 332 332 332 330 330 331 331 331 330 329 327 327 326 325 326 327 327 327 328 328 328 329 329 330 330 330 330 329 328 325 324 325 324 324 325 326 326 325 324 325 325 324 324 325 324 325 325 324 322 319 317 315 314 315 315 314 314 313 313 313 312
327 330 332 331 331 331 330 331 331 331 329 328 327 326 325 324 324 323 322 324 325 327 328 328 328 329 329 329 329 330 329 326 325 325 323 322 324 324 324 325 324 324 326 325 324 325 324 325 325 323 321 318 314 313 313 314 314 313 312 312 312 312 310
328 330 331 330 330 331 330 330 330 330 329 329 326 322 321 322 322 321 320 321 322 325 327 328 328 329 329 329 329 329 329 328 326 325 324 322 322 323 324 324 324 323 325 325 324 324 325 325 324 323 321 317 313 312 312 312 312 311 311 311 312 311 310
330 330 329 328 330 331 330 330 330 329 329 327 324 320 319 318 319 321 325 324 322 322 324 326 328 328 328 328 328 328 328 328 327 325 325 324 322 323 324 323 324 324 324 324 323 324 324 324 324 323 320 317 314 313 312 312 311 311 311 311 311 312 311
330 329 327 327 329 331 330 330 329 328 326 323 320 319 317 316 316 320 326 326 322 320 322 325 327 327 327 327 327 328 328 327 327 325 323 324 324 322 322 322 323 325 325 325 323 323 324 325 324 322 320 318 315 314 313 311 311 311 311 311 311 312 311
328 328 328 329 330 330 329 328 327 325 322 319 316 315 316 317 317 318 323 323 319 318 320 322 323 324 325 326 327 329 329 327 327 327 324 323 324 323 322 323 323 324 325 324 324 324 324 325 324 322 320 319 317 316 314 313 312 311 311 311 312 312 311
328 328 329 329 329 329 327 326 325 322 319 317 314 315 320 322 322 320 320 320 320 320 321 323 322 321 322 324 326 327 327 326 327 329 327 324 324 324 323 323 322 323 323 323 324 325 324 324 324 321 321 320 318 317 316 315 313 312 311 311 311 311 311
330 330 329 329 329 327 326 324 322 318 318 318 315 317 323 324 324 323 322 322 323 323 324 325 325 323 322 323 325 325 326 325 325 327 327 326 325 324 323 323 322 323 324 323 323 325 325 324 322 321 321 320 318 316 316 315 313 312 312 312 312 311 311
330 330 329 329 329 327 326 324 320 318 319 320 319 323 325 323 323 324 323 323 325 325 326 326 325 324 323 322 324 326 325 325 325 324 325 325 325 325 324 323 323 324 323 323 324 325 325 324 321 321 321 319 317 316 316 315 314 313 312 313 312 311 310
329 329 328 329 328 327 326 323 319 319 319 320 323 326 323 319 321 323 323 324 324 324 326 325 323 323 323 323 325 325 325 324 324 323 324 325 325 325 326 324 324 325 323 324 324 324 324 323 320 320 319 318 316 315 315 316 315 314 313 314 314 312 311
327 327 328 328 328 328 325 322 322 321 318 320 324 325 321 319 321 323 323 324 324 323 324 323 323 324 324 324 324 324 324 325 324 324 325 325 324 324 326 325 325 326 325 325 324 324 323 322 320 320 318 316 315 313 315 316 316 315 314 314 314 313 313
326 326 328 327 327 327 325 323 324 323 321 322 324 322 320 321 322 322 322 323 322 322 323 323 324 324 324 323 323 323 324 323 322 322 323 324 323 322 324 326 327 326 326 325 324 323 322 321 320 320 317 316 315 313 314 317 316 316 316 315 313 313 314
327 326 327 327 326 327 325 324 324 324 323 324 323 320 320 321 322 320 320 321 322 322 323 323 323 323 323 322 322 322 323 322 322 322 321 322 323 321 322 324 325 326 326 325 324 322 322 321 320 319 317 316 316 314 314 317 317 317 317 316 315 314 315
327 327 327 326 326 327 326 325 325 325 324 324 322 320 320 321 321 320 320 321 321 321 321 322 322 323 323 322 322 322 322 322 322 321 320 320 321 321 321 322 323 324 325 325 323 322 322 321 320 320 317 316 317 315 314 315 316 317 317 317 317 316 315
327 327 327 327 327 327 327 325 325 325 324 323 321 320 320 320 320 320 320 321 320 320 319 320 321 322 322 322 322 322 322 322 322 321 320 321 321 321 321 322 321 322 323 323 322 322 322 321 320 320 318 317 318 318 316 315 315 316 317 317 317 317 317
328 328 327 327 326 327 326 324 324 324 323 321 320 319 318 319 320 320 320 319 320 320 319 319 320 320 321 321 321 322 322 322 322 321 321 321 321 321 321 321 321 321 321 321 322 322 322 321 320 320 319 318 319 318 317 317 317 317 317 318 318 317 317
328 328 327 327 327 327 325 323 324 323 321 319 318 318 318 319 320 320 319 320 319 319 319 318 319 319 319 320 320 321 321 321 321 321 321 321 320 320 321 320 320 321 321 321 321 321 322 322 321 321 321 320 319 320 319 319 319 318 318 318 318 318 318
327 327 327 327 326 325 324 323 322 321 319 319 318 317 317 318 319 319 319 319 319 318 318 317 317 318 318 319 319 319 320 320 320 320 320 319 319 319 319 320 320 320 320 321 320 320 320 321 322 322 321 320 320 320 320 319 320 319 319 319 319 318 318
327 327 327 326 325 324 323 322 321 320 319 319 318 318 318 318 317 318 318 317 317 317 317 316 316 317 318 318 318 318 319 320 320 319 319 319 319 318 318 319 320 319 318 318 318 318 319 320 321 321 321 321 320 320 320 319 319 319 319 318 318 318 318
327 326 326 326 325 323 322 321 320 321 320 319 320 320 319 318 318 317 318 317 313 311 313 314 315 315 316 317 317 317 317 319 319 319 319 319 319 319 318 318 320 319 318 317 317 316 317 318 318 319 319 319 319 319 319 319 319 319 319 320 319 319 319
326 326 326 326 324 322 321 321 321 320 320 319 320 320 319 318 318 317 317 315 310 308 309 310 311 311 311 313 315 314 316 318 319 319 319 319 320 320 319 320 320 319 319 318 317 316 317 318 318 318 317 317 316 316 316 315 316 316 317 317 317 317 317
325 325 325 325 323 321 320 320 320 319 318 318 318 318 317 317 316 315 315 314 312 311 311 311 310 310 309 309 310 312 315 319 319 320 320 319 320 320 320 321 321 320 320 320 319 317 316 317 319 318 317 316 317 317 317 317 316 316 315 314 314 313 313
324 324 324 323 322 319 318 318 317 316 316 316 316 316 316 316 315 314 314 314 313 313 313 313 313 312 311 310 310 312 315 318 319 320 320 320 320 321 321 320 320 319 320 320 319 319 318 317 317 317 316 315 315 316 317 318 319 319 319 318 318 317 316
321 321 322 321 319 317 316 316 315 315 315 315 316 316 315 315 314 314 314 314 314 314 313 313 313 313 313 313 312 313 316 318 319 319 320 320 320 320 321 320 319 318 318 317 317 316 317 316 316 316 316 316 315 316 316 318 318 318 318 318 318 318 318
319 319 320 319 317 316 316 317 317 316 316 315 315 315 314 314 313 313 315 315 315 314 314 314 313 313 313 314 314 314 316 318 319 319 318 318 318 319 319 318 318 317 317 317 316 316 317 317 317 318 318 318 318 317 317 317 318 317 318 317 317 317 317
317 317 317 317 316 317 317 317 317 316 315 315 314 313 312 313 314 314 316 317 316 316 316 315 315 314 314 314 314 314 315 316 317 317 316 315 314 314 313 313 314 315 315 316 316 317 317 317 316 315 315 314 313 312 311 311 311 311 312 312 312 312 312
315 315 315 315 315 315 315 316 316 316 315 314 314 313 313 314 315 316 316 317 317 317 317 317 316 316 316 315 315 316 316 315 315 315 316 314 311 309 309 310 310 311 313 314 314 313 312 311 310 309 308 308 307 306 306 306 306 306 306 306 306 307 307
312 312 313 313 312 311 311 312 313 314 314 314 313 313 314 314 315 315 315 315 315 315 316 316 316 316 316 316 316 316 316 316 315 313 313 312 309 307 308 309 310 310 310 310 309 308 307 306 306 306 305 305 304 304 304 304 304 304 304 304 303 303 303
309 309 310 310 310 310 310 310 311 311 312 312 312 313 313 313 313 313 313 314 314 314 314 314 314 315 315 315 315 315 314 314 314 312 310 309 308 307 307 307 308 309 308 307 306 305 304 304 304 302 302 302 301 301 301 301 301 301 300 300 300 300 300
307 307 307 307 307 307 307 307 308 308 308 309 310 309 309 309 308 308 309 309 309 309 309 309 310 310 311 311 311 312 312 312 312 311 310 308 307 307 307 307 307 307 307 306 304 302 301 300 300 299 299 299 299 299 298 298 298 298 298 299 299 299 299
305 305 306 305 303 303 302 302 303 303 304 306 306 306 306 307 307 306 306 306 305 304 303 303 303 303 304 303 303 304 304 305 305 304 303 302 302 302 302 302 301 301 301 301 300 299 299 298 298 298 298 298 298 298 299 299 299 299 298 298 299 300 301

ECMWFFLT1_850_thetae_045.txt.gz
Theta_e
330 329 329 328 328 328 328 328 328 328 326 325 325 326 326 327 327 327 326 325 327 327 325 326 328 329 329 326 326 328 329 329 329 328 326 326 327 327 328 327 327 326 326 325 326 326 326 326 326 325 323 323 323 322 322 322 320 318 319 319 319 317 317
329 329 329 327 327 328 327 327 327 327 325 325 326 327 327 328 328 328 328 328 329 329 327 326 327 329 329 327 327 328 328 328 328 328 326 326 327 327 327 327 327 327 326 326 327 326 326 326 326 323 321 322 323 322 322 321 319 320 321 321 320 318 316
329 329 329 327 327 327 326 325 326 326 326 326 327 328 329 329 329 329 328 328 329 328 328 327 327 328 328 327 328 328 328 327 327 327 326 325 326 327 327 327 327 327 327 327 327 327 326 326 326 323 321 321 322 322 321 320 319 320 322 322 320 319 316
329 328 328 327 327 327 325 325 327 327 328 328 328 328 329 330 329 329 329 329 329 328 329 329 328 328 329 328 328 328 328 328 328 328 327 326 327 327 327 327 327 327 327 327 327 327 326 326 325 324 321 321 322 321 320 319 318 319 321 321 320 318 316
328 328 327 328 327 327 326 327 328 328 328 329 329 329 329 330 330 330 329 330 330 330 330 330 329 329 328 328 327 327 329 329 328 327 326 327 327 327 327 327 327 327 327 326 326 326 326 325 325 324 322 320 320 320 318 318 317 317 319 319 318 316 314
328 328 327 327 326 325 325 325 327 328 329 329 329 329 330 330 329 329 330 330 330 330 331 330 329 329 328 327 327 327 328 328 327 326 326 327 328 327 327 327 326 325 326 327 326 327 326 325 325 324 323 321 320 318 316 317 317 316 316 316 316 315 313
328 328 327 324 323 323 322 323 326 328 328 327 328 328 328 329 329 328 329 329 329 330 330 329 329 328 328 328 327 327 327 327 327 326 325 326 327 327 327 327 325 324 326 327 326 326 326 326 325 324 322 321 319 316 315 316 316 315 315 315 314 313 312
327 328 327 324 323 324 325 326 327 328 327 327 328 328 327 327 328 327 328 328 328 328 329 329 328 327 327 328 328 327 326 326 327 326 325 325 325 326 327 327 324 323 325 326 326 325 326 326 324 323 322 319 316 315 316 316 316 315 314 314 314 313 312
327 328 328 326 326 327 327 327 328 329 329 328 328 327 326 325 325 324 325 327 327 327 328 328 327 326 326 326 327 327 326 326 326 325 324 324 324 325 326 326 324 323 324 325 324 324 325 324 324 323 322 320 315 314 316 316 315 315 314 314 313 312 312
328 328 328 327 328 328 328 328 329 329 329 327 326 325 324 322 322 322 322 324 325 326 327 327 327 326 324 324 327 328 327 326 326 325 323 323 324 325 326 325 324 324 324 324 324 324 324 324 324 323 321 320 316 313 314 315 314 314 313 313 313 312 311
327 326 327 327 327 327 327 328 328 327 326 325 323 322 321 321 322 323 325 325 324 324 326 327 327 326 324 323 325 327 327 327 327 325 323 322 323 324 324 324 324 324 324 325 324 324 324 324 324 322 319 318 316 313 313 313 313 313 312 312 312 311 309
327 325 326 327 327 326 325 326 326 324 323 323 322 321 320 321 323 325 327 327 324 322 325 328 328 326 324 323 324 325 326 326 326 325 324 323 322 322 324 324 324 324 324 325 324 324 324 324 324 322 318 315 314 313 312 312 312 311 311 312 312 310 310
328 327 328 329 328 326 325 324 324 323 322 321 318 318 318 320 324 326 326 326 323 321 322 324 325 324 324 325 324 323 324 325 326 325 324 324 322 322 323 324 324 324 323 324 323 323 324 324 323 322 319 315 314 315 313 311 311 311 311 311 311 310 311
328 328 330 330 328 327 325 324 323 321 319 316 315 317 319 320 323 324 323 323 322 323 324 324 323 321 320 323 324 323 323 324 325 324 324 324 323 322 322 322 323 324 324 324 323 322 323 324 323 322 320 317 318 320 316 311 311 311 310 311 311 310 311
328 329 330 329 328 328 325 322 320 318 318 316 315 318 320 322 322 322 323 325 324 324 325 326 326 323 320 321 324 323 323 324 325 324 324 323 323 323 322 322 323 323 323 324 323 323 324 324 324 322 320 319 320 321 318 313 312 312 311 311 311 311 311
329 329 330 329 329 326 321 319 318 318 317 317 318 319 320 322 323 323 324 325 326 326 325 325 326 326 324 323 323 323 323 324 324 325 324 323 323 323 323 322 322 322 323 323 323 324 324 324 323 321 320 319 319 318 317 315 314 313 311 311 312 312 311
329 330 330 329 327 323 319 318 318 318 318 320 321 319 318 321 324 323 323 324 325 325 324 323 324 325 325 326 325 324 323 323 323 324 324 323 322 323 322 322 322 323 323 323 323 324 324 324 323 320 320 320 319 317 316 315 315 314 312 312 312 312 311
330 330 329 328 326 322 319 318 317 317 319 322 322 319 318 322 323 322 321 321 322 323 323 323 324 323 324 324 324 324 324 323 323 323 323 322 323 323 323 323 323 323 324 323 323 323 324 324 323 320 320 320 318 316 315 315 315 315 314 313 312 312 311
330 329 328 328 325 322 320 319 318 318 320 321 321 318 319 321 321 321 321 321 321 323 324 324 324 323 323 323 322 322 323 323 322 322 322 322 323 323 324 325 324 324 324 324 323 323 323 324 323 321 320 319 317 315 314 315 316 316 315 314 313 313 312
329 329 328 328 325 322 320 319 318 319 320 320 320 319 320 321 320 321 323 323 322 323 323 323 323 323 323 323 323 322 322 322 322 323 323 322 321 322 323 324 325 325 324 324 324 324 323 323 322 321 321 319 316 314 313 315 316 316 316 315 314 314 314
328 329 328 328 326 323 321 321 319 320 321 320 320 320 321 321 320 321 322 322 323 323 322 322 322 322 322 322 322 322 322 322 322 322 323 322 322 322 322 322 323 324 324 324 324 323 323 323 322 321 321 319 316 314 314 315 317 317 316 316 316 315 315
328 328 328 328 326 323 322 321 321 322 322 321 320 320 321 321 320 321 321 321 321 321 321 321 321 322 322 322 322 322 321 321 321 322 322 322 322 322 321 321 321 323 324 325 324 323 323 323 322 321 320 319 317 316 314 314 316 317 316 317 317 317 316
326 328 328 328 326 324 323 323 323 324 322 320 319 320 320 320 320 320 320 320 319 320 320 321 320 321 322 322 322 322 321 321 321 321 321 321 321 321 321 321 321 322 323 324 324 323 323 322 321 321 320 319 318 316 315 315 316 317 316 317 317 318 318
326 327 327 327 326 325 325 324 324 324 321 319 319 319 319 320 320 320 320 319 319 319 319 320 320 320 320 321 321 321 322 321 321 321 320 320 320 320 320 320 320 320 321 321 322 322 322 322 322 321 320 319 319 317 316 317 317 318 317 317 317 318 318
327 327 327 327 326 326 325 325 324 322 320 319 318 318 319 320 320 320 320 319 319 319 318 318 319 319 319 319 320 321 321 320 320 320 319 320 320 319 319 320 320 320 320 320 320 320 321 321 321 321 321 320 320 319 319 318 318 318 318 318 318 318 318
327 327 327 326 326 325 325 324 322 320 319 318 317 318 319 319 319 319 319 318 317 317 318 317 317 318 319 319 320 320 320 320 320 320 320 320 319 319 319 320 320 319 319 319 319 319 319 319 319 320 321 321 321 320 319 319 319 319 319 318 318 318 318
326 327 327 326 325 325 324 322 320 318 318 317 317 317 318 318 318 318 318 317 314 312 315 316 316 317 318 318 319 319 319 319 319 319 320 319 319 319 319 319 319 318 317 317 318 318 318 317 317 317 319 320 320 320 319 319 319 318 319 318 318 318 319
325 325 325 325 325 324 322 320 319 318 318 317 317 317 317 317 318 318 318 318 312 307 309 312 314 315 316 317 318 317 318 319 320 320 320 320 320 320 319 319 318 318 318 317 317 316 316 317 317 317 317 318 318 319 318 318 318 318 318 317 317 317 317
325 325 325 324 323 322 321 320 319 319 318 317 317 318 318 318 318 318 317 315 310 307 308 309 310 311 312 314 316 316 318 320 320 320 320 320 320 320 320 320 319 319 319 319 318 317 316 316 317 317 317 317 317 317 316 316 316 316 315 315 314 314 314
323 324 324 323 322 321 320 320 320 319 318 318 319 319 319 318 317 316 315 313 312 311 311 310 310 309 309 310 313 316 318 320 320 320 320 320 320 321 321 320 320 319 319 320 319 318 317 317 318 317 316 316 315 315 315 315 315 315 315 315 315 314 314
319 321 322 322 321 322 321 321 321 320 320 320 319 319 318 317 315 314 314 313 313 313 313 312 312 311 311 311 313 315 316 317 318 319 319 319 320 320 320 320 320 319 319 319 319 318 318 317 317 317 317 316 316 316 316 316 316 316 316 316 316 316 317
313 317 320 319 319 320 320 320 320 320 319 318 317 317 316 315 314 315 314 314 314 314 313 313 313 313 313 315 315 316 316 317 318 318 318 319 319 319 319 319 319 318 317 317 316 317 317 317 316 316 315 315 314 314 313 313 312 312 312 311 312 312 312
311 313 316 315 315 316 316 316 316 317 316 315 315 314 314 314 314 314 314 314 314 314 313 313 313 313 314 315 316 316 317 318 318 317 317 317 316 316 316 316 316 315 315 314 314 314 314 313 312 311 310 310 309 308 308 307 307 307 307 307 307 307 307
310 311 312 313 313 313 314 314 314 314 314 313 313 313 313 314 313 313 313 313 314 314 315 315 314 314 314 315 315 315 316 316 316 315 315 314 314 314 313 312 312 312 311 311 310 310 309 308 308 307 307 306 305 305 304 303 302 302 302 302 303 302 302
308 309 310 311 312 312 311 312 312 312 312 311 311 312 312 312 312 312 311 311 312 314 315 315 315 315 315 315 315 315 315 314 313 312 312 312 312 312 311 310 309 309 309 309 308 308 307 307 305 304 302 301 300 300 300 299 299 299 299 299 299 299 299
305 306 307 308 309 309 309 309 309 309 309 308 308 309 309 308 309 309 309 308 309 310 311 312 313 313 314 314 315 315 315 314 313 312 311 311 310 310 309 308 307 306 306 305 304 303 302 301 300 299 299 299 299 300 300 300 300 300 300 300 300 300 301
303 303 304 305 306 306 306 306 306 306 306 306 307 307 308 307 307 307 306 305 305 304 304 304 305 305 305 306 307 309 310 311 311 309 307 305 304 304 304 302 301 300 300 299 299 299 299 299 299 299 300 300 300 301 301 301 301 301 301 301 301 302 302

ECMWFFLT1_850_thetae_048.txt.gz
Theta_e
331 331 331 331 331 330 329 330 330 329 328 328 327 326 327 327 327 326 326 326 326 324 322 324 326 328 329 329 329 328 329 329 328 327 327 328 328 328 328 328 327 326 326 325 325 326 326 327 327 327 326 325 324 324 323 323 322 320 318 319 319 319 319
332 332 332 331 330 329 329 329 329 329 329 328 327 326 326 327 326 326 325 324 323 322 322 323 325 328 329 329 329 328 328 329 329 328 328 328 327 327 328 328 327 326 326 325 325 326 325 326 327 327 326 325 323 323 323 323 320 319 318 319 318 316 315
332 332 331 330 329 328 328 329 329 329 329 328 326 326 326 326 326 326 326 325 324 323 324 325 326 328 328 328 328 327 327 328 329 329 329 328 326 327 328 327 326 327 326 325 326 326 325 325 326 325 325 324 323 323 324 323 320 319 320 319 318 317 315
332 331 330 329 329 328 328 329 328 328 329 327 326 326 326 327 327 327 328 328 326 326 326 327 327 328 328 328 328 327 327 328 329 329 329 328 327 327 327 327 327 326 326 325 325 326 326 325 325 324 323 323 323 323 323 322 319 319 320 319 318 317 315
330 329 329 329 328 328 328 328 328 328 328 326 325 326 327 328 328 327 328 328 327 327 327 327 328 328 328 328 328 328 327 328 329 329 328 327 327 327 327 326 327 326 326 325 325 326 326 325 324 323 322 323 323 322 321 320 319 319 319 318 318 316 314
329 328 328 328 327 327 327 327 327 327 326 325 325 326 328 329 328 328 328 327 327 327 327 327 328 327 327 328 329 329 328 327 328 328 327 326 326 327 327 327 327 326 327 326 325 326 326 325 325 323 322 322 322 321 319 318 318 319 320 319 317 315 314
328 327 327 326 326 326 325 325 326 326 326 326 326 327 328 329 328 328 327 327 327 327 327 327 327 327 328 328 328 328 328 327 327 328 327 326 326 327 327 327 326 326 327 326 326 326 326 325 325 323 322 322 321 320 318 317 318 318 320 319 317 314 313
328 327 327 325 326 325 325 325 326 326 326 327 327 328 329 329 328 327 327 326 327 326 326 326 327 327 328 328 327 327 328 328 327 327 327 327 326 326 327 327 326 326 326 327 326 326 326 326 325 324 322 321 320 319 317 317 317 317 318 317 316 314 313
329 327 326 326 326 326 325 325 326 326 327 328 329 330 331 330 328 327 326 326 326 326 326 327 327 327 327 326 326 327 328 327 327 327 326 326 327 327 327 327 326 326 325 326 327 326 326 326 325 324 323 321 320 318 317 316 316 316 316 315 314 314 313
329 328 327 327 326 325 325 324 326 327 327 328 329 329 330 330 329 327 326 326 326 325 326 326 326 326 325 326 326 326 327 326 327 327 326 325 326 327 328 327 327 326 324 325 327 326 326 326 325 325 323 322 320 318 316 316 315 315 315 314 313 313 312
330 329 329 327 325 324 323 323 326 327 327 328 327 327 328 329 328 326 325 325 325 325 325 325 325 325 325 325 326 326 326 326 326 326 325 325 325 325 327 327 327 326 323 323 326 326 326 326 326 325 322 321 319 316 314 314 315 316 315 314 313 312 311
331 330 329 327 324 323 324 325 327 328 327 327 327 326 326 326 325 324 323 323 324 324 324 325 325 325 325 324 325 326 327 326 325 325 324 324 324 324 326 326 327 326 324 323 325 326 325 325 326 324 323 321 317 314 313 312 313 315 315 314 312 311 311
330 330 330 328 325 325 327 328 328 328 327 327 327 326 325 324 324 324 323 322 322 323 324 325 325 325 324 324 325 326 326 325 326 325 324 323 324 324 325 326 326 325 324 324 325 324 324 325 325 324 324 322 318 314 313 312 312 313 314 313 312 311 311
329 330 331 330 328 328 329 330 329 328 328 327 326 325 325 323 323 323 324 323 320 321 323 325 325 325 325 324 325 326 326 326 326 326 324 322 323 324 325 325 325 325 324 324 324 324 324 324 325 325 323 320 317 313 312 312 312 312 313 312 311 311 310
326 328 330 330 330 330 330 330 330 328 328 327 325 324 323 322 322 323 324 322 320 319 321 323 324 325 325 324 324 325 325 325 326 326 325 323 322 323 323 323 324 324 324 324 324 324 324 324 324 325 323 320 318 313 312 314 313 312 312 311 311 311 310
325 325 328 330 330 330 330 329 329 329 328 326 324 323 322 322 323 323 322 321 319 318 319 320 320 322 323 324 324 324 323 324 325 325 324 323 323 323 322 323 324 324 323 323 323 324 324 324 324 324 323 323 322 317 316 319 318 314 312 311 311 311 310
325 323 326 329 330 330 330 329 329 328 325 321 319 320 321 321 322 323 322 321 320 319 319 319 318 319 321 323 324 323 323 324 324 324 323 324 324 323 322 322 322 322 322 323 323 324 323 323 324 324 324 324 323 320 319 320 319 316 312 311 312 311 310
326 324 325 328 330 329 329 330 329 324 320 317 317 319 321 322 323 324 323 322 320 318 319 319 319 319 322 323 323 323 323 323 324 324 323 323 323 323 323 322 321 322 322 322 323 323 323 323 324 324 324 323 322 321 319 317 317 316 312 312 313 312 311
326 325 324 327 329 329 330 330 325 319 317 317 317 319 322 323 323 324 324 323 321 319 319 318 318 319 323 325 324 324 323 323 324 324 323 323 323 323 322 322 321 321 322 322 323 323 323 324 324 324 324 323 321 320 318 316 315 314 312 313 314 313 312
325 324 323 325 327 328 329 327 321 318 318 318 318 320 323 323 323 323 324 324 323 321 320 320 319 319 322 324 324 324 323 323 323 323 323 323 323 323 323 323 322 321 322 323 322 323 324 324 324 324 323 321 320 320 319 317 314 313 313 314 314 313 313
325 325 325 323 323 327 328 324 320 321 322 320 320 321 322 322 322 322 322 323 323 322 322 322 322 321 321 322 322 323 323 323 323 322 322 322 323 324 325 325 324 323 323 323 323 323 324 324 324 324 322 320 320 320 319 317 315 314 314 314 314 314 314
327 326 326 323 321 325 326 322 322 324 323 321 320 321 321 321 321 321 320 322 323 323 324 323 323 322 322 322 322 322 322 322 322 322 322 322 323 323 324 324 325 325 324 324 324 324 324 324 324 323 322 321 320 319 317 315 315 315 314 314 314 315 315
328 327 326 324 322 324 325 323 324 325 323 320 319 321 321 320 321 321 320 322 323 323 323 323 323 322 322 323 322 322 322 322 322 322 322 322 322 322 322 322 324 326 325 325 324 324 324 323 323 322 321 321 319 318 316 315 315 316 315 315 315 315 316
328 327 326 325 323 325 325 324 325 325 322 320 320 321 321 320 321 322 321 321 322 322 322 322 322 322 322 322 322 321 321 321 321 322 322 322 321 321 321 321 323 325 326 325 325 324 324 324 323 321 320 320 319 317 316 315 316 316 316 315 316 317 317
327 327 327 326 325 325 325 324 325 323 321 320 321 321 321 320 320 321 321 322 322 321 320 320 321 322 322 322 322 321 321 321 321 322 322 321 321 320 320 320 321 323 323 323 323 323 324 324 323 322 321 320 319 318 317 317 317 317 317 317 317 318 318
326 327 327 326 326 326 325 324 324 322 320 320 320 320 320 320 320 320 321 321 321 321 320 319 320 321 322 322 321 321 321 321 321 321 321 320 320 320 320 320 320 320 321 321 321 321 322 323 323 322 322 321 320 319 319 318 318 318 318 318 318 318 318
326 326 327 326 326 326 325 324 322 321 320 320 319 320 320 320 320 320 319 319 319 320 320 319 319 319 320 320 321 321 321 321 320 320 320 320 320 319 319 319 320 320 320 320 320 320 320 321 321 321 321 321 321 320 320 319 319 319 319 318 319 318 318
324 326 326 326 325 325 325 324 321 319 319 319 319 320 320 320 320 319 319 319 319 319 319 319 319 319 319 319 319 320 321 320 320 319 319 319 320 319 319 319 319 320 319 319 320 319 319 319 319 319 318 319 320 320 320 320 319 319 319 319 319 319 318
324 325 325 325 325 324 324 323 320 318 319 319 319 320 320 320 320 319 319 318 317 316 317 318 318 319 319 319 319 320 320 320 319 319 319 319 319 319 319 319 319 319 318 318 318 318 318 318 318 318 317 317 318 318 319 319 319 319 318 318 318 318 318
322 322 322 323 325 324 322 321 319 318 318 319 319 319 320 319 319 319 319 317 313 311 314 317 317 317 318 319 319 319 319 319 319 319 319 319 319 319 318 318 318 318 317 317 317 316 316 317 317 318 318 317 317 317 317 317 317 317 317 317 317 316 316
316 318 319 319 321 322 320 318 318 318 318 318 318 318 318 318 318 317 316 314 309 308 311 314 315 315 316 317 318 318 318 319 319 320 319 319 319 319 318 318 318 318 318 318 317 317 317 316 317 317 317 317 317 317 316 315 315 315 315 315 315 315 315
312 314 315 315 315 316 317 317 317 317 317 318 317 317 317 317 316 314 312 311 309 309 310 311 312 312 313 315 316 317 318 318 319 320 320 320 320 320 319 319 319 319 319 319 319 319 318 317 317 317 317 317 317 316 315 315 315 314 314 314 314 314 315
311 312 312 312 311 312 315 317 317 317 317 316 315 315 315 315 314 312 311 312 311 311 312 312 313 313 314 315 316 316 317 318 319 320 320 320 320 320 320 320 320 320 319 319 319 319 318 318 318 317 317 316 316 315 314 313 313 313 312 312 311 311 311
310 310 311 311 310 310 312 314 315 315 315 314 313 313 313 313 312 312 311 312 312 312 313 313 314 315 316 317 317 317 316 317 317 318 319 319 319 319 319 320 319 318 317 316 316 316 316 315 315 314 313 312 311 310 309 309 308 308 307 307 306 306 305
309 309 309 310 310 309 310 311 312 313 313 312 312 312 312 312 312 312 311 311 311 311 311 312 313 313 314 314 316 317 317 317 316 316 317 318 318 318 318 317 316 314 313 312 312 312 312 311 311 310 309 309 308 307 306 305 304 304 304 304 304 304 303
306 307 308 308 308 308 309 309 309 310 310 311 312 312 311 310 311 311 310 311 311 311 310 310 310 311 311 311 311 313 315 316 316 316 316 317 316 315 314 313 311 311 310 310 310 310 309 309 308 307 306 306 305 304 303 303 303 303 303 303 302 302 301
306 306 306 306 307 308 308 308 308 308 308 309 309 308 307 307 308 308 308 308 308 308 307 306 306 308 308 307 306 308 310 312 313 313 313 313 312 311 310 310 309 309 308 308 307 306 305 303 302 302 302 301 301 301 301 301 301 301 301 300 300 300 300